Time,TemperatureF,DewpointF,PressureIn,WindDirection,WindDirectionDegrees,WindSpeedMPH,WindSpeedGustMPH,Humidity,HourlyPrecipIn,Conditions,Clouds,dailyrainin,SoftwareType,DateUTC
2013-03-10 00:00:00,29.3,27.0,30.32,South,188,0.0,0.0,91,0.00,,SKC,0.00,VWS V14.01,2013-03-10 05:00:00,
2013-03-10 00:01:00,29.3,27.0,30.32,South,188,0.0,0.0,91,0.00,,SKC,0.00,VWS V14.01,2013-03-10 05:01:00,
2013-03-10 00:05:00,29.3,27.0,30.32,South,188,0.0,0.0,91,0.00,,SKC,0.00,VWS V14.01,2013-03-10 05:05:00,
2013-03-10 00:06:00,29.3,27.0,30.32,South,188,0.0,0.0,91,0.00,,SKC,0.00,VWS V14.01,2013-03-10 05:06:00,
2013-03-10 00:10:00,29.3,27.0,30.32,South,188,0.0,0.0,91,0.00,,SKC,0.00,VWS V14.01,2013-03-10 05:10:00,
2013-03-10 00:11:00,29.3,27.0,30.32,South,188,0.0,0.0,91,0.00,,SKC,0.00,VWS V14.01,2013-03-10 05:11:00,
2013-03-10 00:12:00,29.3,27.0,30.32,South,188,0.0,0.0,91,0.00,,SKC,0.00,VWS V14.01,2013-03-10 05:12:00,
2013-03-10 00:15:00,29.3,27.0,30.31,South,188,0.0,0.0,91,0.00,,SKC,0.00,VWS V14.01,2013-03-10 05:15:00,
2013-03-10 00:16:00,29.3,27.0,30.31,South,188,0.0,0.0,91,0.00,,SKC,0.00,VWS V14.01,2013-03-10 05:16:00,
2013-03-10 00:17:00,29.3,27.0,30.31,South,188,0.0,0.0,91,0.00,,SKC,0.00,VWS V14.01,2013-03-10 05:17:00,
2013-03-10 00:18:00,29.3,27.0,30.31,South,188,0.0,0.0,91,0.00,,SKC,0.00,VWS V14.01,2013-03-10 05:18:00,
2013-03-10 00:20:00,29.3,27.0,30.31,South,188,0.0,0.0,91,0.00,,SKC,0.00,VWS V14.01,2013-03-10 05:20:00,
2013-03-10 00:21:00,29.3,27.0,30.31,South,188,0.0,0.0,91,0.00,,SKC,0.00,VWS V14.01,2013-03-10 05:21:00,
2013-03-10 00:23:00,29.3,27.0,30.31,South,188,0.0,0.0,91,0.00,,SKC,0.00,VWS V14.01,2013-03-10 05:23:00,
2013-03-10 00:25:00,29.3,27.0,30.31,South,188,0.0,0.0,91,0.00,,SKC,0.00,VWS V14.01,2013-03-10 05:25:00,
2013-03-10 00:26:00,29.3,27.0,30.31,South,188,0.0,0.0,91,0.00,,SKC,0.00,VWS V14.01,2013-03-10 05:26:00,
2013-03-10 00:28:00,29.3,27.0,30.31,South,188,0.0,0.0,91,0.00,,SKC,0.00,VWS V14.01,2013-03-10 05:28:00,
2013-03-10 00:30:00,29.3,27.0,30.32,South,188,0.0,0.0,91,0.00,,SKC,0.00,VWS V14.01,2013-03-10 05:30:00,
2013-03-10 00:31:00,29.3,27.0,30.32,South,188,0.0,0.0,91,0.00,,SKC,0.00,VWS V14.01,2013-03-10 05:31:00,
2013-03-10 00:33:00,29.3,27.0,30.32,South,188,0.0,0.0,91,0.00,,SKC,0.00,VWS V14.01,2013-03-10 05:33:00,
2013-03-10 00:35:00,29.3,27.0,30.32,South,188,0.0,0.0,91,0.00,,SKC,0.00,VWS V14.01,2013-03-10 05:35:00,
2013-03-10 00:36:00,29.3,27.0,30.32,South,188,0.0,0.0,91,0.00,,SKC,0.00,VWS V14.01,2013-03-10 05:36:00,
2013-03-10 00:37:00,29.3,27.0,30.32,South,188,0.0,0.0,91,0.00,,SKC,0.00,VWS V14.01,2013-03-10 05:37:00,
2013-03-10 00:38:00,29.3,27.0,30.32,South,188,0.0,0.0,91,0.00,,SKC,0.00,VWS V14.01,2013-03-10 05:38:00,
2013-03-10 00:40:00,29.3,27.0,30.32,South,188,0.0,0.0,91,0.00,,SKC,0.00,VWS V14.01,2013-03-10 05:40:00,
2013-03-10 00:42:00,29.3,27.0,30.32,South,188,0.0,0.0,91,0.00,,SKC,0.00,VWS V14.01,2013-03-10 05:42:00,
2013-03-10 00:43:00,29.3,27.0,30.32,South,188,0.0,0.0,91,0.00,,SKC,0.00,VWS V14.01,2013-03-10 05:43:00,
2013-03-10 00:44:00,29.3,27.0,30.33,South,188,0.0,0.0,91,0.00,,SKC,0.00,VWS V14.01,2013-03-10 05:44:00,
2013-03-10 00:45:00,29.3,27.0,30.33,South,188,0.0,0.0,91,0.00,,SKC,0.00,VWS V14.01,2013-03-10 05:45:00,
2013-03-10 00:47:00,29.3,27.0,30.33,South,188,0.0,0.0,91,0.00,,SKC,0.00,VWS V14.01,2013-03-10 05:47:00,
2013-03-10 00:48:00,29.3,27.0,30.33,South,188,0.0,0.0,91,0.00,,SKC,0.00,VWS V14.01,2013-03-10 05:48:00,
2013-03-10 00:49:00,29.3,27.0,30.33,South,188,0.0,0.0,91,0.00,,SKC,0.00,VWS V14.01,2013-03-10 05:49:00,
2013-03-10 00:50:00,29.3,27.0,30.33,South,188,0.0,0.0,91,0.00,,SKC,0.00,VWS V14.01,2013-03-10 05:50:00,
2013-03-10 00:52:00,29.3,27.0,30.33,South,188,0.0,0.0,91,0.00,,SKC,0.00,VWS V14.01,2013-03-10 05:52:00,
2013-03-10 00:53:00,29.3,27.0,30.33,South,188,0.0,0.0,91,0.00,,SKC,0.00,VWS V14.01,2013-03-10 05:53:00,
2013-03-10 00:55:00,29.3,27.0,30.33,South,188,0.0,0.0,91,0.00,,SKC,0.00,VWS V14.01,2013-03-10 05:55:00,
2013-03-10 00:57:00,29.3,27.0,30.33,South,188,0.0,0.0,91,0.00,,SKC,0.00,VWS V14.01,2013-03-10 05:57:00,
2013-03-10 00:58:00,29.3,27.0,30.33,South,188,0.0,0.0,91,0.00,,SKC,0.00,VWS V14.01,2013-03-10 05:58:00,
2013-03-10 01:00:00,29.3,27.0,30.33,South,188,0.0,0.0,91,0.00,,SKC,0.00,VWS V14.01,2013-03-10 06:00:00,
2013-03-10 01:02:00,29.3,27.0,30.33,South,188,0.0,0.0,91,0.00,,SKC,0.00,VWS V14.01,2013-03-10 06:02:00,
2013-03-10 01:04:00,29.3,27.0,30.33,South,188,0.0,0.0,91,0.00,,SKC,0.00,VWS V14.01,2013-03-10 06:04:00,
2013-03-10 01:05:00,29.3,27.0,30.33,South,188,0.0,0.0,91,0.00,,SKC,0.00,VWS V14.01,2013-03-10 06:05:00,
2013-03-10 01:07:00,29.3,27.0,30.33,South,188,0.0,0.0,91,0.00,,SKC,0.00,VWS V14.01,2013-03-10 06:07:00,
2013-03-10 01:08:00,29.3,27.0,30.33,South,188,0.0,0.0,91,0.00,,SKC,0.00,VWS V14.01,2013-03-10 06:08:00,
2013-03-10 01:09:00,29.3,27.0,30.33,South,188,0.0,0.0,91,0.00,,SKC,0.00,VWS V14.01,2013-03-10 06:09:00,
2013-03-10 01:10:00,29.3,27.0,30.33,South,188,0.0,0.0,91,0.00,,SKC,0.00,VWS V14.01,2013-03-10 06:10:00,
2013-03-10 01:11:00,29.3,27.0,30.33,South,188,0.0,0.0,91,0.00,,SKC,0.00,VWS V14.01,2013-03-10 06:11:00,
2013-03-10 01:13:00,29.3,27.0,30.33,South,188,0.0,0.0,91,0.00,,SKC,0.00,VWS V14.01,2013-03-10 06:13:00,
2013-03-10 01:14:00,29.3,27.0,30.33,South,188,0.0,0.0,91,0.00,,SKC,0.00,VWS V14.01,2013-03-10 06:14:00,
2013-03-10 01:15:00,29.3,27.0,30.33,South,188,0.0,0.0,91,0.00,,SKC,0.00,VWS V14.01,2013-03-10 06:15:00,
2013-03-10 01:17:00,29.3,27.0,30.33,North,352,3.0,3.0,91,0.00,,SKC,0.00,VWS V14.01,2013-03-10 06:17:00,
2013-03-10 01:18:00,29.3,27.0,30.33,North,353,1.0,3.0,91,0.00,,SKC,0.00,VWS V14.01,2013-03-10 06:18:00,
2013-03-10 01:19:00,29.3,27.0,30.33,North,353,1.0,3.0,91,0.00,,SKC,0.00,VWS V14.01,2013-03-10 06:19:00,
2013-03-10 01:20:00,29.3,27.0,30.33,North,353,1.0,1.0,91,0.00,,SKC,0.00,VWS V14.01,2013-03-10 06:20:00,
2013-03-10 01:22:00,29.3,27.0,30.33,North,353,1.0,1.0,91,0.00,,SKC,0.00,VWS V14.01,2013-03-10 06:22:00,
2013-03-10 01:23:00,29.3,27.0,30.33,North,353,1.0,1.0,91,0.00,,SKC,0.00,VWS V14.01,2013-03-10 06:23:00,
2013-03-10 01:24:00,29.3,27.0,30.33,North,354,1.0,1.0,91,0.00,,SKC,0.00,VWS V14.01,2013-03-10 06:24:00,
2013-03-10 01:25:00,28.8,26.5,30.33,North,357,2.0,2.0,91,0.00,,SKC,0.00,VWS V14.01,2013-03-10 06:25:00,
2013-03-10 01:27:00,28.8,26.5,30.33,North,357,1.0,2.0,91,0.00,,SKC,0.00,VWS V14.01,2013-03-10 06:27:00,
2013-03-10 01:28:00,28.8,26.5,30.33,North,357,1.0,2.0,91,0.00,,SKC,0.00,VWS V14.01,2013-03-10 06:28:00,
2013-03-10 01:29:00,28.8,26.5,30.33,North,357,1.0,2.0,91,0.00,,SKC,0.00,VWS V14.01,2013-03-10 06:29:00,
2013-03-10 01:30:00,28.8,26.5,30.33,North,357,0.0,1.0,91,0.00,,SKC,0.00,VWS V14.01,2013-03-10 06:30:00,
2013-03-10 01:32:00,28.8,26.5,30.33,SSE,155,1.0,1.0,91,0.00,,SKC,0.00,VWS V14.01,2013-03-10 06:32:00,
2013-03-10 01:33:00,28.8,26.5,30.33,SSE,148,0.0,1.0,91,0.00,,SKC,0.00,VWS V14.01,2013-03-10 06:33:00,
2013-03-10 01:34:00,28.8,26.5,30.33,SSE,148,0.0,1.0,91,0.00,,SKC,0.00,VWS V14.01,2013-03-10 06:34:00,
2013-03-10 01:35:00,28.8,26.5,30.33,SSE,148,0.0,0.0,91,0.00,,SKC,0.00,VWS V14.01,2013-03-10 06:35:00,
2013-03-10 01:37:00,28.8,26.5,30.33,SSE,148,0.0,0.0,91,0.00,,SKC,0.00,VWS V14.01,2013-03-10 06:37:00,
2013-03-10 01:38:00,28.8,26.8,30.33,North,357,1.0,2.0,92,0.00,,SKC,0.00,VWS V14.01,2013-03-10 06:38:00,
2013-03-10 01:39:00,28.8,26.8,30.33,North,359,1.0,2.0,92,0.00,,SKC,0.00,VWS V14.01,2013-03-10 06:39:00,
2013-03-10 01:40:00,28.8,26.8,30.33,North,357,1.0,2.0,92,0.00,,SKC,0.00,VWS V14.01,2013-03-10 06:40:00,
2013-03-10 01:43:00,28.8,26.8,30.33,North,357,1.0,2.0,92,0.00,,SKC,0.00,VWS V14.01,2013-03-10 06:43:00,
2013-03-10 01:44:00,28.8,26.8,30.33,North,357,1.0,2.0,92,0.00,,SKC,0.00,VWS V14.01,2013-03-10 06:44:00,
2013-03-10 01:45:00,28.8,26.8,30.33,North,357,1.0,2.0,92,0.00,,SKC,0.00,VWS V14.01,2013-03-10 06:45:00,
2013-03-10 01:46:00,28.8,26.8,30.33,NNW,329,1.0,1.0,92,0.00,,SKC,0.00,VWS V14.01,2013-03-10 06:46:00,
2013-03-10 01:48:00,28.8,26.8,30.33,NNW,328,0.0,1.0,92,0.00,,SKC,0.00,VWS V14.01,2013-03-10 06:48:00,
2013-03-10 01:49:00,28.8,26.8,30.33,NNW,342,1.0,1.0,92,0.00,,SKC,0.00,VWS V14.01,2013-03-10 06:49:00,
2013-03-10 01:50:00,28.8,26.8,30.33,NNW,342,1.0,1.0,92,0.00,,SKC,0.00,VWS V14.01,2013-03-10 06:50:00,
2013-03-10 01:51:00,28.8,26.8,30.33,NNW,342,1.0,1.0,92,0.00,,SKC,0.00,VWS V14.01,2013-03-10 06:51:00,
2013-03-10 01:53:00,28.8,26.8,30.33,NNW,342,0.0,1.0,92,0.00,,SKC,0.00,VWS V14.01,2013-03-10 06:53:00,
2013-03-10 01:54:00,28.8,26.8,30.33,NNW,342,0.0,1.0,92,0.00,,SKC,0.00,VWS V14.01,2013-03-10 06:54:00,
2013-03-10 01:55:00,28.8,26.8,30.33,NNW,342,0.0,1.0,92,0.00,,SKC,0.00,VWS V14.01,2013-03-10 06:55:00,
2013-03-10 01:56:00,28.8,26.8,30.33,NNW,342,0.0,0.0,92,0.00,,SKC,0.00,VWS V14.01,2013-03-10 06:56:00,
2013-03-10 01:59:00,28.8,26.8,30.34,NNW,342,0.0,0.0,92,0.00,,SKC,0.00,VWS V14.01,2013-03-10 06:59:00,
2013-03-10 03:00:00,28.8,26.8,30.34,NNW,342,0.0,0.0,92,0.00,,SKC,0.00,VWS V14.01,2013-03-10 07:00:00,
2013-03-10 03:01:00,28.8,26.8,30.34,NNW,342,0.0,0.0,92,0.00,,SKC,0.00,VWS V14.01,2013-03-10 07:01:00,
2013-03-10 03:04:00,28.8,26.8,30.34,NNW,342,0.0,0.0,92,0.00,,SKC,0.00,VWS V14.01,2013-03-10 07:04:00,
2013-03-10 03:05:00,28.8,26.8,30.34,NNW,342,0.0,0.0,92,0.00,,SKC,0.00,VWS V14.01,2013-03-10 07:05:00,
2013-03-10 03:06:00,28.8,26.8,30.34,NNW,342,0.0,0.0,92,0.00,,SKC,0.00,VWS V14.01,2013-03-10 07:06:00,
2013-03-10 03:07:00,28.8,26.8,30.34,NNW,342,0.0,0.0,92,0.00,,SKC,0.00,VWS V14.01,2013-03-10 07:07:00,
2013-03-10 03:09:00,28.8,26.8,30.34,NNW,347,0.0,0.0,92,0.00,,SKC,0.00,VWS V14.01,2013-03-10 07:09:00,
2013-03-10 03:10:00,28.5,26.5,30.34,NNW,347,0.0,0.0,92,0.00,,SKC,0.00,VWS V14.01,2013-03-10 07:10:00,
2013-03-10 03:11:00,28.5,26.5,30.34,NNW,347,0.0,0.0,92,0.00,,SKC,0.00,VWS V14.01,2013-03-10 07:11:00,
2013-03-10 03:12:00,28.5,26.5,30.34,NNW,347,0.0,0.0,92,0.00,,SKC,0.00,VWS V14.01,2013-03-10 07:12:00,
2013-03-10 03:14:00,28.7,26.7,30.33,NNW,347,0.0,0.0,92,0.00,,SKC,0.00,VWS V14.01,2013-03-10 07:14:00,
2013-03-10 03:15:00,28.7,26.7,30.33,North,349,0.0,0.0,92,0.00,,SKC,0.00,VWS V14.01,2013-03-10 07:15:00,
2013-03-10 03:17:00,28.7,26.7,30.33,North,349,0.0,0.0,92,0.00,,SKC,0.00,VWS V14.01,2013-03-10 07:17:00,
2013-03-10 03:19:00,28.7,26.7,30.33,North,349,0.0,0.0,92,0.00,,SKC,0.00,VWS V14.01,2013-03-10 07:19:00,
2013-03-10 03:20:00,28.7,26.7,30.33,North,349,0.0,0.0,92,0.00,,SKC,0.00,VWS V14.01,2013-03-10 07:20:00,
2013-03-10 03:22:00,28.7,26.7,30.33,North,352,0.0,0.0,92,0.00,,SKC,0.00,VWS V14.01,2013-03-10 07:22:00,
2013-03-10 03:24:00,28.7,26.7,30.33,North,352,0.0,0.0,92,0.00,,SKC,0.00,VWS V14.01,2013-03-10 07:24:00,
2013-03-10 03:25:00,28.7,26.7,30.33,North,352,0.0,0.0,92,0.00,,SKC,0.00,VWS V14.01,2013-03-10 07:25:00,
2013-03-10 03:27:00,28.7,26.7,30.33,North,352,0.0,0.0,92,0.00,,SKC,0.00,VWS V14.01,2013-03-10 07:27:00,
2013-03-10 03:30:00,28.7,26.7,30.34,North,350,0.0,0.0,92,0.00,,SKC,0.00,VWS V14.01,2013-03-10 07:30:00,
2013-03-10 03:31:00,28.7,26.7,30.34,North,350,0.0,0.0,92,0.00,,SKC,0.00,VWS V14.01,2013-03-10 07:31:00,
2013-03-10 03:33:00,28.7,26.7,30.34,SE,144,0.0,2.0,92,0.00,,SKC,0.00,VWS V14.01,2013-03-10 07:33:00,
2013-03-10 03:35:00,28.7,26.7,30.34,SSE,154,1.0,1.0,92,0.00,,SKC,0.00,VWS V14.01,2013-03-10 07:35:00,
2013-03-10 03:37:00,28.7,26.7,30.34,SSE,154,1.0,1.0,92,0.00,,SKC,0.00,VWS V14.01,2013-03-10 07:37:00,
2013-03-10 03:38:00,28.8,26.8,30.34,NNW,344,5.0,5.0,92,0.00,,SKC,0.00,VWS V14.01,2013-03-10 07:38:00,
2013-03-10 03:40:00,28.8,26.8,30.34,NNW,346,1.0,1.0,92,0.00,,SKC,0.00,VWS V14.01,2013-03-10 07:40:00,
2013-03-10 03:41:00,28.8,26.8,30.34,North,349,1.0,2.0,92,0.00,,SKC,0.00,VWS V14.01,2013-03-10 07:41:00,
2013-03-10 03:42:00,28.8,26.8,30.34,North,349,2.0,2.0,92,0.00,,SKC,0.00,VWS V14.01,2013-03-10 07:42:00,
2013-03-10 03:43:00,28.8,26.8,30.33,North,349,2.0,2.0,92,0.00,,SKC,0.00,VWS V14.01,2013-03-10 07:43:00,
2013-03-10 03:45:00,28.8,26.8,30.33,North,350,0.0,2.0,92,0.00,,SKC,0.00,VWS V14.01,2013-03-10 07:45:00,
2013-03-10 03:46:00,28.8,26.8,30.33,North,350,0.0,2.0,92,0.00,,SKC,0.00,VWS V14.01,2013-03-10 07:46:00,
2013-03-10 03:47:00,28.8,26.8,30.33,North,350,0.0,2.0,92,0.00,,SKC,0.00,VWS V14.01,2013-03-10 07:47:00,
2013-03-10 03:49:00,28.8,26.8,30.33,North,350,1.0,1.0,92,0.00,,SKC,0.00,VWS V14.01,2013-03-10 07:49:00,
2013-03-10 03:50:00,28.8,26.8,30.33,North,350,0.0,1.0,92,0.00,,SKC,0.00,VWS V14.01,2013-03-10 07:50:00,
2013-03-10 03:51:00,28.8,26.8,30.33,North,350,3.0,3.0,92,0.00,,SKC,0.00,VWS V14.01,2013-03-10 07:51:00,
2013-03-10 03:52:00,28.8,26.8,30.33,North,350,2.0,3.0,92,0.00,,SKC,0.00,VWS V14.01,2013-03-10 07:52:00,
2013-03-10 03:55:00,28.8,26.8,30.33,North,353,3.0,3.0,92,0.00,,SKC,0.00,VWS V14.01,2013-03-10 07:55:00,
2013-03-10 03:57:00,28.8,26.8,30.33,North,353,1.0,3.0,92,0.00,,SKC,0.00,VWS V14.01,2013-03-10 07:57:00,
2013-03-10 04:00:00,28.8,26.8,30.33,North,354,0.0,1.0,92,0.00,,SKC,0.00,VWS V14.01,2013-03-10 08:00:00,
2013-03-10 04:01:00,28.8,26.8,30.33,North,354,0.0,1.0,92,0.00,,SKC,0.00,VWS V14.01,2013-03-10 08:01:00,
2013-03-10 04:02:00,28.8,26.8,30.33,North,354,0.0,1.0,92,0.00,,SKC,0.00,VWS V14.01,2013-03-10 08:02:00,
2013-03-10 04:03:00,28.8,26.8,30.33,North,354,0.0,1.0,92,0.00,,SKC,0.00,VWS V14.01,2013-03-10 08:03:00,
2013-03-10 04:05:00,28.8,26.8,30.33,NNW,344,2.0,2.0,92,0.00,,SKC,0.00,VWS V14.01,2013-03-10 08:05:00,
2013-03-10 04:06:00,28.8,26.8,30.33,NNW,344,2.0,2.0,92,0.00,,SKC,0.00,VWS V14.01,2013-03-10 08:06:00,
2013-03-10 04:07:00,28.8,26.8,30.33,North,350,2.0,2.0,92,0.00,,SKC,0.00,VWS V14.01,2013-03-10 08:07:00,
2013-03-10 04:08:00,29.0,27.0,30.33,North,350,0.0,2.0,92,0.00,,SKC,0.00,VWS V14.01,2013-03-10 08:08:00,
2013-03-10 04:10:00,29.0,27.0,30.33,North,350,0.0,2.0,92,0.00,,SKC,0.00,VWS V14.01,2013-03-10 08:10:00,
2013-03-10 04:11:00,29.0,27.0,30.33,North,350,2.0,3.0,92,0.00,,SKC,0.00,VWS V14.01,2013-03-10 08:11:00,
2013-03-10 04:12:00,29.0,27.0,30.33,North,350,0.0,3.0,92,0.00,,SKC,0.00,VWS V14.01,2013-03-10 08:12:00,
2013-03-10 04:13:00,29.0,27.0,30.33,North,350,0.0,3.0,92,0.00,,SKC,0.00,VWS V14.01,2013-03-10 08:13:00,
2013-03-10 04:15:00,29.0,27.0,30.33,North,350,0.0,3.0,92,0.00,,SKC,0.00,VWS V14.01,2013-03-10 08:15:00,
2013-03-10 04:16:00,29.0,27.0,30.33,North,349,3.0,3.0,92,0.00,,SKC,0.00,VWS V14.01,2013-03-10 08:16:00,
2013-03-10 04:17:00,29.0,27.0,30.33,NNW,346,0.0,3.0,92,0.00,,SKC,0.00,VWS V14.01,2013-03-10 08:17:00,
2013-03-10 04:18:00,29.0,27.0,30.33,NNW,342,0.0,3.0,92,0.00,,SKC,0.00,VWS V14.01,2013-03-10 08:18:00,
2013-03-10 04:20:00,29.0,27.0,30.33,NNW,342,0.0,3.0,92,0.00,,SKC,0.00,VWS V14.01,2013-03-10 08:20:00,
2013-03-10 04:21:00,29.0,27.0,30.33,NNW,342,0.0,0.0,92,0.00,,SKC,0.00,VWS V14.01,2013-03-10 08:21:00,
2013-03-10 04:22:00,29.0,27.0,30.33,NNW,342,0.0,0.0,92,0.00,,SKC,0.00,VWS V14.01,2013-03-10 08:22:00,
2013-03-10 04:23:00,29.0,27.0,30.33,NNW,344,0.0,0.0,92,0.00,,SKC,0.00,VWS V14.01,2013-03-10 08:23:00,
2013-03-10 04:24:00,29.1,27.1,30.33,NNW,346,0.0,0.0,92,0.00,,SKC,0.00,VWS V14.01,2013-03-10 08:24:00,
2013-03-10 04:25:00,29.1,27.1,30.33,NNW,346,0.0,0.0,92,0.00,,SKC,0.00,VWS V14.01,2013-03-10 08:25:00,
2013-03-10 04:27:00,29.1,27.1,30.33,North,354,0.0,0.0,92,0.00,,SKC,0.00,VWS V14.01,2013-03-10 08:27:00,
2013-03-10 04:28:00,29.1,27.1,30.33,North,354,0.0,0.0,92,0.00,,SKC,0.00,VWS V14.01,2013-03-10 08:28:00,
2013-03-10 04:29:00,29.1,27.1,30.34,North,354,0.0,0.0,92,0.00,,SKC,0.00,VWS V14.01,2013-03-10 08:29:00,
2013-03-10 04:30:00,29.1,27.1,30.34,North,354,0.0,0.0,92,0.00,,SKC,0.00,VWS V14.01,2013-03-10 08:30:00,
2013-03-10 04:32:00,29.1,27.1,30.34,North,356,1.0,1.0,92,0.00,,SKC,0.00,VWS V14.01,2013-03-10 08:32:00,
2013-03-10 04:33:00,29.1,27.1,30.34,North,356,1.0,1.0,92,0.00,,SKC,0.00,VWS V14.01,2013-03-10 08:33:00,
2013-03-10 04:34:00,29.1,27.1,30.34,North,356,1.0,1.0,92,0.00,,SKC,0.00,VWS V14.01,2013-03-10 08:34:00,
2013-03-10 04:35:00,29.1,27.1,30.34,North,356,1.0,1.0,92,0.00,,SKC,0.00,VWS V14.01,2013-03-10 08:35:00,
2013-03-10 04:37:00,29.1,27.1,30.34,North,353,0.0,1.0,92,0.00,,SKC,0.00,VWS V14.01,2013-03-10 08:37:00,
2013-03-10 04:38:00,29.1,27.1,30.34,North,353,0.0,1.0,92,0.00,,SKC,0.00,VWS V14.01,2013-03-10 08:38:00,
2013-03-10 04:39:00,29.1,27.1,30.34,North,353,0.0,1.0,92,0.00,,SKC,0.00,VWS V14.01,2013-03-10 08:39:00,
2013-03-10 04:40:00,29.3,27.3,30.34,North,354,0.0,1.0,92,0.00,,SKC,0.00,VWS V14.01,2013-03-10 08:40:00,
2013-03-10 04:42:00,29.3,27.3,30.34,SE,144,0.0,3.0,92,0.00,,SKC,0.00,VWS V14.01,2013-03-10 08:42:00,
2013-03-10 04:43:00,29.3,27.3,30.35,SE,144,0.0,3.0,92,0.00,,SKC,0.00,VWS V14.01,2013-03-10 08:43:00,
2013-03-10 04:44:00,29.3,27.3,30.35,SE,144,0.0,3.0,92,0.00,,SKC,0.00,VWS V14.01,2013-03-10 08:44:00,
2013-03-10 04:45:00,29.3,27.3,30.35,NNW,344,0.0,0.0,92,0.00,,SKC,0.00,VWS V14.01,2013-03-10 08:45:00,
2013-03-10 04:47:00,29.3,27.3,30.35,North,349,2.0,2.0,92,0.00,,SKC,0.00,VWS V14.01,2013-03-10 08:47:00,
2013-03-10 04:49:00,29.3,27.3,30.35,North,353,0.0,2.0,92,0.00,,SKC,0.00,VWS V14.01,2013-03-10 08:49:00,
2013-03-10 04:50:00,29.3,27.3,30.35,North,353,0.0,0.0,92,0.00,,SKC,0.00,VWS V14.01,2013-03-10 08:50:00,
2013-03-10 04:53:00,29.3,27.3,30.35,North,357,2.0,2.0,92,0.00,,SKC,0.00,VWS V14.01,2013-03-10 08:53:00,
2013-03-10 04:54:00,29.3,27.3,30.35,North,357,0.0,2.0,92,0.00,,SKC,0.00,VWS V14.01,2013-03-10 08:54:00,
2013-03-10 04:55:00,29.3,27.3,30.35,North,357,0.0,0.0,92,0.00,,SKC,0.00,VWS V14.01,2013-03-10 08:55:00,
2013-03-10 04:58:00,29.4,27.4,30.35,North,357,0.0,0.0,92,0.00,,SKC,0.00,VWS V14.01,2013-03-10 08:58:00,
2013-03-10 04:59:00,29.4,27.4,30.35,North,357,0.0,0.0,92,0.00,,SKC,0.00,VWS V14.01,2013-03-10 08:59:00,
2013-03-10 05:00:00,29.4,27.4,30.35,NNW,346,0.0,1.0,92,0.00,,SKC,0.00,VWS V14.01,2013-03-10 09:00:00,
2013-03-10 05:03:00,29.4,27.4,30.35,NNW,346,0.0,1.0,92,0.00,,SKC,0.00,VWS V14.01,2013-03-10 09:03:00,
2013-03-10 05:04:00,29.4,27.4,30.35,North,349,0.0,0.0,92,0.00,,SKC,0.00,VWS V14.01,2013-03-10 09:04:00,
2013-03-10 05:05:00,29.4,27.4,30.35,North,349,0.0,0.0,92,0.00,,SKC,0.00,VWS V14.01,2013-03-10 09:05:00,
2013-03-10 05:08:00,29.3,27.3,30.35,North,352,2.0,2.0,92,0.00,,SKC,0.00,VWS V14.01,2013-03-10 09:08:00,
2013-03-10 05:10:00,29.3,27.3,30.35,North,352,0.0,0.0,92,0.00,,SKC,0.00,VWS V14.01,2013-03-10 09:10:00,
2013-03-10 05:11:00,29.3,27.3,30.35,North,353,0.0,0.0,92,0.00,,SKC,0.00,VWS V14.01,2013-03-10 09:11:00,
2013-03-10 05:14:00,29.3,27.3,30.34,North,353,0.0,0.0,92,0.00,,SKC,0.00,VWS V14.01,2013-03-10 09:14:00,
2013-03-10 05:15:00,29.3,27.3,30.34,North,353,0.0,0.0,92,0.00,,SKC,0.00,VWS V14.01,2013-03-10 09:15:00,
2013-03-10 05:16:00,29.3,27.3,30.34,North,353,0.0,0.0,92,0.00,,SKC,0.00,VWS V14.01,2013-03-10 09:16:00,
2013-03-10 05:19:00,29.3,27.3,30.34,North,356,0.0,0.0,92,0.00,,SKC,0.00,VWS V14.01,2013-03-10 09:19:00,
2013-03-10 05:20:00,29.3,27.3,30.34,North,356,0.0,0.0,92,0.00,,SKC,0.00,VWS V14.01,2013-03-10 09:20:00,
2013-03-10 05:21:00,29.3,27.3,30.34,North,356,0.0,0.0,92,0.00,,SKC,0.00,VWS V14.01,2013-03-10 09:21:00,
2013-03-10 05:24:00,29.3,27.3,30.34,North,356,0.0,0.0,92,0.00,,SKC,0.00,VWS V14.01,2013-03-10 09:24:00,
2013-03-10 05:25:00,29.3,27.3,30.34,SSE,161,1.0,1.0,92,0.00,,SKC,0.00,VWS V14.01,2013-03-10 09:25:00,
2013-03-10 05:26:00,29.3,27.3,30.34,SSE,152,0.0,4.0,92,0.00,,SKC,0.00,VWS V14.01,2013-03-10 09:26:00,
2013-03-10 05:27:00,29.3,27.3,30.34,SSE,155,2.0,4.0,92,0.00,,SKC,0.00,VWS V14.01,2013-03-10 09:27:00,
2013-03-10 05:29:00,29.3,27.3,30.34,SSE,154,0.0,4.0,92,0.00,,SKC,0.00,VWS V14.01,2013-03-10 09:29:00,
2013-03-10 05:30:00,29.3,27.3,30.34,SSE,154,0.0,4.0,92,0.00,,SKC,0.00,VWS V14.01,2013-03-10 09:30:00,
2013-03-10 05:31:00,29.3,27.3,30.34,SSE,154,0.0,0.0,92,0.00,,SKC,0.00,VWS V14.01,2013-03-10 09:31:00,
2013-03-10 05:32:00,29.3,27.3,30.34,SSE,154,0.0,0.0,92,0.00,,SKC,0.00,VWS V14.01,2013-03-10 09:32:00,
2013-03-10 05:35:00,29.3,27.3,30.34,SSE,155,0.0,1.0,92,0.00,,SKC,0.00,VWS V14.01,2013-03-10 09:35:00,
2013-03-10 05:37:00,29.3,27.3,30.34,SSE,151,0.0,1.0,92,0.00,,SKC,0.00,VWS V14.01,2013-03-10 09:37:00,
2013-03-10 05:40:00,29.3,27.3,30.34,SSE,151,0.0,0.0,92,0.00,,SKC,0.00,VWS V14.01,2013-03-10 09:40:00,
2013-03-10 05:42:00,29.4,27.4,30.34,SSE,150,0.0,0.0,92,0.00,,SKC,0.00,VWS V14.01,2013-03-10 09:42:00,
2013-03-10 05:43:00,29.4,27.4,30.34,SSE,150,0.0,0.0,92,0.00,,SKC,0.00,VWS V14.01,2013-03-10 09:43:00,
2013-03-10 05:45:00,29.4,27.4,30.35,SSE,150,0.0,0.0,92,0.00,,SKC,0.00,VWS V14.01,2013-03-10 09:45:00,
2013-03-10 05:47:00,29.4,27.4,30.35,SSE,150,0.0,0.0,92,0.00,,SKC,0.00,VWS V14.01,2013-03-10 09:47:00,
2013-03-10 05:48:00,29.4,27.4,30.35,SSE,150,0.0,0.0,92,0.00,,SKC,0.00,VWS V14.01,2013-03-10 09:48:00,
2013-03-10 05:50:00,29.4,27.4,30.35,North,357,0.0,0.0,92,0.00,,SKC,0.00,VWS V14.01,2013-03-10 09:50:00,
2013-03-10 05:52:00,29.4,27.4,30.35,North,357,0.0,0.0,92,0.00,,SKC,0.00,VWS V14.01,2013-03-10 09:52:00,
2013-03-10 05:53:00,29.4,27.4,30.35,North,357,0.0,0.0,92,0.00,,SKC,0.00,VWS V14.01,2013-03-10 09:53:00,
2013-03-10 05:55:00,29.4,27.4,30.35,North,354,1.0,1.0,92,0.00,,SKC,0.00,VWS V14.01,2013-03-10 09:55:00,
2013-03-10 05:56:00,29.4,27.4,30.35,North,354,0.0,1.0,92,0.00,,SKC,0.00,VWS V14.01,2013-03-10 09:56:00,
2013-03-10 05:57:00,29.4,27.4,30.35,North,354,0.0,1.0,92,0.00,,SKC,0.00,VWS V14.01,2013-03-10 09:57:00,
2013-03-10 05:58:00,29.4,27.4,30.35,North,354,0.0,1.0,92,0.00,,SKC,0.00,VWS V14.01,2013-03-10 09:58:00,
2013-03-10 05:59:00,29.5,27.5,30.35,North,354,0.0,1.0,92,0.00,,SKC,0.00,VWS V14.01,2013-03-10 09:59:00,
2013-03-10 06:00:00,29.5,27.5,30.35,North,354,0.0,1.0,92,0.00,,SKC,0.00,VWS V14.01,2013-03-10 10:00:00,
2013-03-10 06:01:00,29.5,27.5,30.35,North,354,0.0,0.0,92,0.00,,SKC,0.00,VWS V14.01,2013-03-10 10:01:00,
2013-03-10 06:03:00,29.5,27.5,30.35,North,354,0.0,0.0,92,0.00,,SKC,0.00,VWS V14.01,2013-03-10 10:03:00,
2013-03-10 06:04:00,29.5,27.5,30.35,North,354,0.0,0.0,92,0.00,,SKC,0.00,VWS V14.01,2013-03-10 10:04:00,
2013-03-10 06:05:00,29.5,27.5,30.35,North,354,0.0,0.0,92,0.00,,SKC,0.00,VWS V14.01,2013-03-10 10:05:00,
2013-03-10 06:06:00,29.5,27.5,30.35,North,354,0.0,0.0,92,0.00,,SKC,0.00,VWS V14.01,2013-03-10 10:06:00,
2013-03-10 06:08:00,29.5,27.5,30.35,North,354,0.0,0.0,92,0.00,,SKC,0.00,VWS V14.01,2013-03-10 10:08:00,
2013-03-10 06:09:00,29.5,27.5,30.35,North,354,0.0,0.0,92,0.00,,SKC,0.00,VWS V14.01,2013-03-10 10:09:00,
2013-03-10 06:10:00,29.5,27.5,30.35,North,354,0.0,0.0,92,0.00,,SKC,0.00,VWS V14.01,2013-03-10 10:10:00,
2013-03-10 06:11:00,29.5,27.5,30.35,North,354,0.0,0.0,92,0.00,,SKC,0.00,VWS V14.01,2013-03-10 10:11:00,
2013-03-10 06:14:00,29.5,27.5,30.35,North,357,0.0,2.0,92,0.00,,SKC,0.00,VWS V14.01,2013-03-10 10:14:00,
2013-03-10 06:15:00,29.5,27.5,30.35,North,357,0.0,0.0,92,0.00,,SKC,0.00,VWS V14.01,2013-03-10 10:15:00,
2013-03-10 06:16:00,29.5,27.5,30.35,North,357,0.0,0.0,92,0.00,,SKC,0.00,VWS V14.01,2013-03-10 10:16:00,
2013-03-10 06:19:00,29.5,27.5,30.35,North,359,0.0,0.0,92,0.00,,SKC,0.00,VWS V14.01,2013-03-10 10:19:00,
2013-03-10 06:20:00,29.5,27.5,30.35,North,357,0.0,0.0,92,0.00,,SKC,0.00,VWS V14.01,2013-03-10 10:20:00,
2013-03-10 06:21:00,29.5,27.5,30.35,North,357,0.0,0.0,92,0.00,,SKC,0.00,VWS V14.01,2013-03-10 10:21:00,
2013-03-10 06:24:00,29.5,27.2,30.35,North,357,0.0,0.0,91,0.00,,SKC,0.00,VWS V14.01,2013-03-10 10:24:00,
2013-03-10 06:25:00,29.5,27.2,30.35,North,357,0.0,0.0,91,0.00,,SKC,0.00,VWS V14.01,2013-03-10 10:25:00,
2013-03-10 06:26:00,29.5,27.2,30.35,North,357,0.0,0.0,91,0.00,,SKC,0.00,VWS V14.01,2013-03-10 10:26:00,
2013-03-10 06:29:00,29.5,27.2,30.34,North,357,0.0,0.0,91,0.00,,SKC,0.00,VWS V14.01,2013-03-10 10:29:00,
2013-03-10 06:30:00,29.1,26.8,30.34,North,357,0.0,0.0,91,0.00,,SKC,0.00,VWS V14.01,2013-03-10 10:30:00,
2013-03-10 06:31:00,29.1,26.8,30.34,North,357,0.0,0.0,91,0.00,,SKC,0.00,VWS V14.01,2013-03-10 10:31:00,
2013-03-10 06:35:00,29.0,26.7,30.34,North,357,0.0,0.0,91,0.00,,SKC,0.00,VWS V14.01,2013-03-10 10:35:00,
2013-03-10 06:36:00,29.0,26.7,30.34,North,357,0.0,0.0,91,0.00,,SKC,0.00,VWS V14.01,2013-03-10 10:36:00,
2013-03-10 06:37:00,29.0,26.7,30.34,North,357,0.0,0.0,91,0.00,,SKC,0.00,VWS V14.01,2013-03-10 10:37:00,
2013-03-10 06:40:00,29.0,26.7,30.34,North,357,0.0,0.0,91,0.00,,SKC,0.00,VWS V14.01,2013-03-10 10:40:00,
2013-03-10 06:41:00,29.0,26.7,30.34,North,357,0.0,0.0,91,0.00,,SKC,0.00,VWS V14.01,2013-03-10 10:41:00,
2013-03-10 06:42:00,29.0,26.7,30.34,North,357,0.0,0.0,91,0.00,,SKC,0.00,VWS V14.01,2013-03-10 10:42:00,
2013-03-10 06:45:00,28.8,26.5,30.34,North,357,0.0,0.0,91,0.00,,SKC,0.00,VWS V14.01,2013-03-10 10:45:00,
2013-03-10 06:46:00,28.8,26.5,30.34,North,357,0.0,0.0,91,0.00,,SKC,0.00,VWS V14.01,2013-03-10 10:46:00,
2013-03-10 06:47:00,28.8,26.5,30.34,North,357,0.0,0.0,91,0.00,,SKC,0.00,VWS V14.01,2013-03-10 10:47:00,
2013-03-10 06:50:00,28.7,26.4,30.34,North,357,0.0,0.0,91,0.00,,SKC,0.00,VWS V14.01,2013-03-10 10:50:00,
2013-03-10 06:51:00,28.7,26.4,30.34,North,357,0.0,0.0,91,0.00,,SKC,0.00,VWS V14.01,2013-03-10 10:51:00,
2013-03-10 06:52:00,28.7,26.4,30.34,North,357,0.0,0.0,91,0.00,,SKC,0.00,VWS V14.01,2013-03-10 10:52:00,
2013-03-10 06:53:00,28.7,26.4,30.34,North,357,0.0,0.0,91,0.00,,SKC,0.00,VWS V14.01,2013-03-10 10:53:00,
2013-03-10 06:55:00,28.7,26.4,30.34,North,357,0.0,0.0,91,0.00,,SKC,0.00,VWS V14.01,2013-03-10 10:55:00,
2013-03-10 06:56:00,28.7,26.4,30.34,North,357,2.0,5.0,91,0.00,,SKC,0.00,VWS V14.01,2013-03-10 10:56:00,
2013-03-10 06:57:00,28.7,26.4,30.34,North,357,2.0,5.0,91,0.00,,SKC,0.00,VWS V14.01,2013-03-10 10:57:00,
2013-03-10 06:58:00,28.7,26.4,30.34,North,357,0.0,5.0,91,0.00,,SKC,0.00,VWS V14.01,2013-03-10 10:58:00,
2013-03-10 07:00:00,28.7,26.4,30.34,North,357,0.0,5.0,91,0.00,,SKC,0.00,VWS V14.01,2013-03-10 11:00:00,
2013-03-10 07:01:00,28.7,26.7,30.34,North,357,0.0,0.0,92,0.00,,SKC,0.00,VWS V14.01,2013-03-10 11:01:00,
2013-03-10 07:02:00,28.7,26.7,30.34,North,357,0.0,0.0,92,0.00,,SKC,0.00,VWS V14.01,2013-03-10 11:02:00,
2013-03-10 07:03:00,28.7,26.7,30.34,North,357,0.0,0.0,92,0.00,,SKC,0.00,VWS V14.01,2013-03-10 11:03:00,
2013-03-10 07:05:00,28.7,26.7,30.34,North,357,0.0,0.0,92,0.00,,SKC,0.00,VWS V14.01,2013-03-10 11:05:00,
2013-03-10 07:07:00,28.4,26.4,30.34,North,357,0.0,0.0,92,0.00,,SKC,0.00,VWS V14.01,2013-03-10 11:07:00,
2013-03-10 07:08:00,28.4,26.4,30.34,North,357,0.0,0.0,92,0.00,,SKC,0.00,VWS V14.01,2013-03-10 11:08:00,
2013-03-10 07:09:00,28.4,26.4,30.34,North,357,0.0,0.0,92,0.00,,SKC,0.00,VWS V14.01,2013-03-10 11:09:00,
2013-03-10 07:10:00,28.4,26.4,30.34,North,357,0.0,0.0,92,0.00,,SKC,0.00,VWS V14.01,2013-03-10 11:10:00,
2013-03-10 07:12:00,28.2,26.2,30.34,North,357,0.0,0.0,92,0.00,,SKC,0.00,VWS V14.01,2013-03-10 11:12:00,
2013-03-10 07:13:00,28.2,26.2,30.34,North,357,0.0,0.0,92,0.00,,SKC,0.00,VWS V14.01,2013-03-10 11:13:00,
2013-03-10 07:14:00,28.2,26.2,30.34,North,357,0.0,0.0,92,0.00,,SKC,0.00,VWS V14.01,2013-03-10 11:14:00,
2013-03-10 07:15:00,28.2,26.2,30.34,North,357,0.0,0.0,92,0.00,,SKC,0.00,VWS V14.01,2013-03-10 11:15:00,
2013-03-10 07:17:00,28.2,26.2,30.34,North,357,0.0,0.0,92,0.00,,SKC,0.00,VWS V14.01,2013-03-10 11:17:00,
2013-03-10 07:18:00,28.2,26.2,30.34,North,357,0.0,0.0,92,0.00,,SKC,0.00,VWS V14.01,2013-03-10 11:18:00,
2013-03-10 07:19:00,28.2,26.2,30.34,North,357,0.0,0.0,92,0.00,,SKC,0.00,VWS V14.01,2013-03-10 11:19:00,
2013-03-10 07:20:00,28.2,26.2,30.34,North,357,0.0,0.0,92,0.00,,SKC,0.00,VWS V14.01,2013-03-10 11:20:00,
2013-03-10 07:22:00,28.2,26.2,30.34,North,357,0.0,0.0,92,0.00,,SKC,0.00,VWS V14.01,2013-03-10 11:22:00,
2013-03-10 07:24:00,28.2,26.2,30.34,North,357,0.0,0.0,92,0.00,,SKC,0.00,VWS V14.01,2013-03-10 11:24:00,
2013-03-10 07:25:00,28.2,26.2,30.34,North,357,0.0,0.0,92,0.00,,SKC,0.00,VWS V14.01,2013-03-10 11:25:00,
2013-03-10 07:27:00,28.2,26.2,30.34,North,357,0.0,0.0,92,0.00,,SKC,0.00,VWS V14.01,2013-03-10 11:27:00,
2013-03-10 07:29:00,28.2,26.2,30.35,North,357,0.0,0.0,92,0.00,,SKC,0.00,VWS V14.01,2013-03-10 11:29:00,
2013-03-10 07:30:00,28.2,26.2,30.35,North,357,0.0,0.0,92,0.00,,SKC,0.00,VWS V14.01,2013-03-10 11:30:00,
2013-03-10 07:32:00,28.2,26.2,30.35,North,357,0.0,0.0,92,0.00,,SKC,0.00,VWS V14.01,2013-03-10 11:32:00,
2013-03-10 07:33:00,28.2,26.2,30.35,North,357,0.0,0.0,92,0.00,,SKC,0.00,VWS V14.01,2013-03-10 11:33:00,
2013-03-10 07:34:00,28.2,26.2,30.35,North,357,0.0,0.0,92,0.00,,SKC,0.00,VWS V14.01,2013-03-10 11:34:00,
2013-03-10 07:35:00,28.2,26.2,30.35,North,357,0.0,0.0,92,0.00,,SKC,0.00,VWS V14.01,2013-03-10 11:35:00,
2013-03-10 07:38:00,28.2,26.2,30.35,North,357,0.0,1.0,92,0.00,,SKC,0.00,VWS V14.01,2013-03-10 11:38:00,
2013-03-10 07:39:00,28.2,26.2,30.35,North,357,0.0,0.0,92,0.00,,SKC,0.00,VWS V14.01,2013-03-10 11:39:00,
2013-03-10 07:40:00,28.2,26.2,30.35,North,357,0.0,0.0,92,0.00,,SKC,0.00,VWS V14.01,2013-03-10 11:40:00,
2013-03-10 07:43:00,28.2,26.2,30.35,North,357,0.0,0.0,92,0.00,,SKC,0.00,VWS V14.01,2013-03-10 11:43:00,
2013-03-10 07:45:00,28.2,26.2,30.36,North,357,0.0,0.0,92,0.00,,SKC,0.00,VWS V14.01,2013-03-10 11:45:00,
2013-03-10 07:48:00,28.2,26.2,30.36,North,357,0.0,0.0,92,0.00,,SKC,0.00,VWS V14.01,2013-03-10 11:48:00,
2013-03-10 07:50:00,28.2,26.2,30.36,North,359,0.0,0.0,92,0.00,,SKC,0.00,VWS V14.01,2013-03-10 11:50:00,
2013-03-10 07:51:00,28.2,26.2,30.36,North,357,0.0,0.0,92,0.00,,SKC,0.00,VWS V14.01,2013-03-10 11:51:00,
2013-03-10 07:53:00,28.2,26.2,30.36,North,357,0.0,0.0,92,0.00,,SKC,0.00,VWS V14.01,2013-03-10 11:53:00,
2013-03-10 07:55:00,28.2,26.2,30.36,North,357,0.0,0.0,92,0.00,,SKC,0.00,VWS V14.01,2013-03-10 11:55:00,
2013-03-10 07:56:00,28.2,26.2,30.36,North,357,1.0,1.0,92,0.00,,SKC,0.00,VWS V14.01,2013-03-10 11:56:00,
2013-03-10 07:58:00,28.2,26.2,30.36,North,353,1.0,3.0,92,0.00,,SKC,0.00,VWS V14.01,2013-03-10 11:58:00,
2013-03-10 08:00:00,28.2,26.2,30.37,North,353,2.0,3.0,92,0.00,,SKC,0.00,VWS V14.01,2013-03-10 12:00:00,
2013-03-10 08:01:00,28.4,26.4,30.37,North,353,1.0,2.0,92,0.00,,SKC,0.00,VWS V14.01,2013-03-10 12:01:00,
2013-03-10 08:02:00,28.4,26.4,30.37,North,353,1.0,2.0,92,0.00,,SKC,0.00,VWS V14.01,2013-03-10 12:02:00,
2013-03-10 08:03:00,28.4,26.4,30.37,North,353,1.0,2.0,92,0.00,,SKC,0.00,VWS V14.01,2013-03-10 12:03:00,
2013-03-10 08:04:00,28.4,26.4,30.37,North,354,0.0,0.0,92,0.00,,SKC,0.00,VWS V14.01,2013-03-10 12:04:00,
2013-03-10 08:05:00,28.4,26.4,30.37,North,354,0.0,2.0,92,0.00,,SKC,0.00,VWS V14.01,2013-03-10 12:05:00,
2013-03-10 08:07:00,28.4,26.4,30.37,North,354,2.0,2.0,92,0.00,,SKC,0.00,VWS V14.01,2013-03-10 12:07:00,
2013-03-10 08:09:00,28.4,26.4,30.37,North,354,2.0,2.0,92,0.00,,SKC,0.00,VWS V14.01,2013-03-10 12:09:00,
2013-03-10 08:10:00,28.4,26.4,30.37,North,354,2.0,2.0,92,0.00,,SKC,0.00,VWS V14.01,2013-03-10 12:10:00,
2013-03-10 08:12:00,28.5,26.5,30.37,North,356,2.0,3.0,92,0.00,,SKC,0.00,VWS V14.01,2013-03-10 12:12:00,
2013-03-10 08:14:00,28.5,26.5,30.37,North,357,1.0,3.0,92,0.00,,SKC,0.00,VWS V14.01,2013-03-10 12:14:00,
2013-03-10 08:15:00,28.5,26.5,30.37,North,357,1.0,3.0,92,0.00,,SKC,0.00,VWS V14.01,2013-03-10 12:15:00,
2013-03-10 08:17:00,28.5,26.5,30.37,North,357,0.0,1.0,92,0.00,,SKC,0.00,VWS V14.01,2013-03-10 12:17:00,
2013-03-10 08:18:00,28.5,26.5,30.37,North,357,0.0,1.0,92,0.00,,SKC,0.00,VWS V14.01,2013-03-10 12:18:00,
2013-03-10 08:19:00,28.5,26.5,30.37,North,357,0.0,1.0,92,0.00,,SKC,0.00,VWS V14.01,2013-03-10 12:19:00,
2013-03-10 08:20:00,28.5,26.5,30.37,North,357,2.0,2.0,92,0.00,,SKC,0.00,VWS V14.01,2013-03-10 12:20:00,
2013-03-10 08:23:00,28.5,26.5,30.37,North,357,0.0,2.0,92,0.00,,SKC,0.00,VWS V14.01,2013-03-10 12:23:00,
2013-03-10 08:24:00,28.5,26.5,30.37,North,357,0.0,2.0,92,0.00,,SKC,0.00,VWS V14.01,2013-03-10 12:24:00,
2013-03-10 08:25:00,28.5,26.5,30.37,North,357,0.0,2.0,92,0.00,,SKC,0.00,VWS V14.01,2013-03-10 12:25:00,
2013-03-10 08:26:00,28.8,26.8,30.37,North,357,3.0,3.0,92,0.00,,SKC,0.00,VWS V14.01,2013-03-10 12:26:00,
2013-03-10 08:28:00,28.8,26.8,30.37,North,356,0.0,3.0,92,0.00,,SKC,0.00,VWS V14.01,2013-03-10 12:28:00,
2013-03-10 08:29:00,28.8,26.8,30.37,North,356,0.0,3.0,92,0.00,,SKC,0.00,VWS V14.01,2013-03-10 12:29:00,
2013-03-10 08:30:00,28.8,26.8,30.37,North,356,0.0,3.0,92,0.00,,SKC,0.00,VWS V14.01,2013-03-10 12:30:00,
2013-03-10 08:31:00,28.8,26.8,30.37,North,356,0.0,0.0,92,0.00,,SKC,0.00,VWS V14.01,2013-03-10 12:31:00,
2013-03-10 08:33:00,28.8,26.8,30.37,North,356,0.0,0.0,92,0.00,,SKC,0.00,VWS V14.01,2013-03-10 12:33:00,
2013-03-10 08:34:00,28.8,26.8,30.37,North,356,0.0,0.0,92,0.00,,SKC,0.00,VWS V14.01,2013-03-10 12:34:00,
2013-03-10 08:35:00,28.8,26.8,30.37,North,356,0.0,0.0,92,0.00,,SKC,0.00,VWS V14.01,2013-03-10 12:35:00,
2013-03-10 08:36:00,28.8,26.8,30.37,North,356,0.0,0.0,92,0.00,,SKC,0.00,VWS V14.01,2013-03-10 12:36:00,
2013-03-10 08:38:00,28.8,26.8,30.37,North,356,0.0,0.0,92,0.00,,SKC,0.00,VWS V14.01,2013-03-10 12:38:00,
2013-03-10 08:39:00,28.8,26.8,30.37,North,356,0.0,0.0,92,0.00,,SKC,0.00,VWS V14.01,2013-03-10 12:39:00,
2013-03-10 08:40:00,28.8,26.8,30.37,North,356,0.0,0.0,92,0.00,,SKC,0.00,VWS V14.01,2013-03-10 12:40:00,
2013-03-10 08:41:00,28.8,26.8,30.37,North,356,0.0,0.0,92,0.00,,SKC,0.00,VWS V14.01,2013-03-10 12:41:00,
2013-03-10 08:43:00,28.8,26.8,30.38,North,356,0.0,0.0,92,0.00,,SKC,0.00,VWS V14.01,2013-03-10 12:43:00,
2013-03-10 08:45:00,28.8,26.8,30.38,North,356,0.0,0.0,92,0.00,,SKC,0.00,VWS V14.01,2013-03-10 12:45:00,
2013-03-10 08:46:00,28.8,26.8,30.38,North,356,0.0,0.0,92,0.00,,SKC,0.00,VWS V14.01,2013-03-10 12:46:00,
2013-03-10 08:49:00,28.8,26.8,30.38,North,356,0.0,0.0,92,0.00,,SKC,0.00,VWS V14.01,2013-03-10 12:49:00,
2013-03-10 08:50:00,28.8,26.8,30.38,North,356,0.0,0.0,92,0.00,,SKC,0.00,VWS V14.01,2013-03-10 12:50:00,
2013-03-10 08:51:00,28.8,26.8,30.38,North,356,0.0,0.0,92,0.00,,SKC,0.00,VWS V14.01,2013-03-10 12:51:00,
2013-03-10 08:54:00,28.8,26.8,30.38,North,356,0.0,0.0,92,0.00,,SKC,0.00,VWS V14.01,2013-03-10 12:54:00,
2013-03-10 08:55:00,28.8,26.8,30.38,North,356,0.0,0.0,92,0.00,,SKC,0.00,VWS V14.01,2013-03-10 12:55:00,
2013-03-10 08:56:00,30.0,28.0,30.38,North,349,0.0,0.0,92,0.00,,SKC,0.00,VWS V14.01,2013-03-10 12:56:00,
2013-03-10 08:57:00,30.0,28.0,30.38,North,349,0.0,0.0,92,0.00,,SKC,0.00,VWS V14.01,2013-03-10 12:57:00,
2013-03-10 08:59:00,30.0,28.0,30.38,NNW,346,3.0,3.0,92,0.00,,SKC,0.00,VWS V14.01,2013-03-10 12:59:00,
2013-03-10 09:00:00,30.0,28.0,30.38,NNW,346,3.0,3.0,92,0.00,,SKC,0.00,VWS V14.01,2013-03-10 13:00:00,
2013-03-10 09:01:00,30.0,28.0,30.38,NNW,346,0.0,3.0,92,0.00,,SKC,0.00,VWS V14.01,2013-03-10 13:01:00,
2013-03-10 09:02:00,30.0,28.0,30.38,NNW,346,0.0,3.0,92,0.00,,SKC,0.00,VWS V14.01,2013-03-10 13:02:00,
2013-03-10 09:04:00,30.4,27.8,30.38,NNW,347,0.0,3.0,90,0.00,,SKC,0.00,VWS V14.01,2013-03-10 13:04:00,
2013-03-10 09:05:00,30.4,27.8,30.38,NNW,347,0.0,0.0,90,0.00,,SKC,0.00,VWS V14.01,2013-03-10 13:05:00,
2013-03-10 09:06:00,30.4,27.8,30.38,NNW,347,0.0,0.0,90,0.00,,SKC,0.00,VWS V14.01,2013-03-10 13:06:00,
2013-03-10 09:07:00,30.4,27.8,30.38,NNW,347,0.0,0.0,90,0.00,,SKC,0.00,VWS V14.01,2013-03-10 13:07:00,
2013-03-10 09:09:00,30.7,28.1,30.38,SSE,157,1.0,1.0,90,0.00,,SKC,0.00,VWS V14.01,2013-03-10 13:09:00,
2013-03-10 09:10:00,30.7,28.1,30.38,South,172,1.0,1.0,90,0.00,,SKC,0.00,VWS V14.01,2013-03-10 13:10:00,
2013-03-10 09:12:00,30.7,28.1,30.38,South,174,2.0,2.0,90,0.00,,SKC,0.00,VWS V14.01,2013-03-10 13:12:00,
2013-03-10 09:14:00,30.7,28.1,30.37,South,174,2.0,2.0,90,0.00,,SKC,0.00,VWS V14.01,2013-03-10 13:14:00,
2013-03-10 09:15:00,30.7,28.1,30.37,South,174,2.0,2.0,90,0.00,,SKC,0.00,VWS V14.01,2013-03-10 13:15:00,
2013-03-10 09:17:00,30.7,28.1,30.37,South,174,2.0,2.0,90,0.00,,SKC,0.00,VWS V14.01,2013-03-10 13:17:00,
2013-03-10 09:18:00,31.2,28.6,30.37,South,176,3.0,3.0,90,0.01,,SKC,0.01,VWS V14.01,2013-03-10 13:18:00,
2013-03-10 09:19:00,31.2,28.6,30.37,South,171,4.0,4.0,90,0.01,,SKC,0.01,VWS V14.01,2013-03-10 13:19:00,
2013-03-10 09:20:00,31.2,28.6,30.37,SSE,167,2.0,4.0,90,0.01,,SKC,0.01,VWS V14.01,2013-03-10 13:20:00,
2013-03-10 09:22:00,31.3,28.7,30.37,SSE,168,2.0,4.0,90,0.01,,SKC,0.01,VWS V14.01,2013-03-10 13:22:00,
2013-03-10 09:24:00,31.3,28.7,30.37,SSE,168,2.0,4.0,90,0.01,,SKC,0.01,VWS V14.01,2013-03-10 13:24:00,
2013-03-10 09:25:00,31.3,28.7,30.37,SSE,168,2.0,2.0,90,0.01,,SKC,0.01,VWS V14.01,2013-03-10 13:25:00,
2013-03-10 09:28:00,31.3,28.7,30.37,North,352,1.0,2.0,90,0.01,,SKC,0.01,VWS V14.01,2013-03-10 13:28:00,
2013-03-10 09:29:00,31.3,28.7,30.38,North,357,0.0,2.0,90,0.01,,SKC,0.01,VWS V14.01,2013-03-10 13:29:00,
2013-03-10 09:30:00,31.3,28.7,30.38,North,357,0.0,0.0,90,0.01,,SKC,0.01,VWS V14.01,2013-03-10 13:30:00,
2013-03-10 09:33:00,31.9,29.3,30.38,North,349,0.0,0.0,90,0.01,,SKC,0.01,VWS V14.01,2013-03-10 13:33:00,
2013-03-10 09:34:00,31.9,28.5,30.38,SSE,150,2.0,3.0,87,0.01,,SKC,0.01,VWS V14.01,2013-03-10 13:34:00,
2013-03-10 09:35:00,31.9,28.5,30.38,SSE,150,2.0,2.0,87,0.01,,SKC,0.01,VWS V14.01,2013-03-10 13:35:00,
2013-03-10 09:38:00,32.2,28.8,30.38,North,357,1.0,2.0,87,0.01,,SKC,0.01,VWS V14.01,2013-03-10 13:38:00,
2013-03-10 09:39:00,32.2,28.8,30.38,North,357,0.0,2.0,87,0.01,,SKC,0.01,VWS V14.01,2013-03-10 13:39:00,
2013-03-10 09:40:00,32.4,29.0,30.38,North,357,0.0,2.0,87,0.01,,SKC,0.01,VWS V14.01,2013-03-10 13:40:00,
2013-03-10 09:41:00,32.4,29.0,30.38,North,357,0.0,2.0,87,0.01,,SKC,0.01,VWS V14.01,2013-03-10 13:41:00,
2013-03-10 09:43:00,32.5,29.1,30.38,North,357,0.0,2.0,87,0.01,,SKC,0.01,VWS V14.01,2013-03-10 13:43:00,
2013-03-10 09:44:00,32.5,29.1,30.38,North,357,0.0,2.0,87,0.01,,SKC,0.01,VWS V14.01,2013-03-10 13:44:00,
2013-03-10 09:45:00,32.5,29.1,30.38,North,357,0.0,0.0,87,0.01,,SKC,0.01,VWS V14.01,2013-03-10 13:45:00,
2013-03-10 09:46:00,32.5,29.1,30.38,North,357,0.0,0.0,87,0.01,,SKC,0.01,VWS V14.01,2013-03-10 13:46:00,
2013-03-10 09:48:00,32.7,29.3,30.38,SSE,155,2.0,2.0,87,0.01,,SKC,0.01,VWS V14.01,2013-03-10 13:48:00,
2013-03-10 09:50:00,32.8,29.4,30.38,SSE,160,0.0,2.0,87,0.01,,SKC,0.01,VWS V14.01,2013-03-10 13:50:00,
2013-03-10 09:51:00,32.8,29.4,30.38,SSE,160,0.0,2.0,87,0.01,,SKC,0.01,VWS V14.01,2013-03-10 13:51:00,
2013-03-10 09:53:00,32.8,29.4,30.38,SSE,160,0.0,2.0,87,0.01,,SKC,0.01,VWS V14.01,2013-03-10 13:53:00,
2013-03-10 09:55:00,32.8,29.4,30.38,SSE,150,1.0,1.0,87,0.01,,SKC,0.01,VWS V14.01,2013-03-10 13:55:00,
2013-03-10 09:56:00,32.8,29.4,30.38,SE,143,1.0,1.0,87,0.01,,SKC,0.01,VWS V14.01,2013-03-10 13:56:00,
2013-03-10 09:57:00,32.8,29.4,30.38,SSE,154,3.0,3.0,87,0.01,,SKC,0.01,VWS V14.01,2013-03-10 13:57:00,
2013-03-10 09:58:00,33.2,29.8,30.38,SSE,161,1.0,3.0,87,0.01,,SKC,0.01,VWS V14.01,2013-03-10 13:58:00,
2013-03-10 10:00:00,33.2,29.8,30.38,SSE,154,1.0,2.0,87,0.01,,SKC,0.01,VWS V14.01,2013-03-10 14:00:00,
2013-03-10 10:01:00,33.4,30.0,30.38,SSE,155,0.0,2.0,87,0.01,,SKC,0.01,VWS V14.01,2013-03-10 14:01:00,
2013-03-10 10:02:00,33.4,30.0,30.38,SSE,155,0.0,2.0,87,0.01,,SKC,0.01,VWS V14.01,2013-03-10 14:02:00,
2013-03-10 10:03:00,33.4,30.0,30.38,SSE,155,0.0,2.0,87,0.01,,SKC,0.01,VWS V14.01,2013-03-10 14:03:00,
2013-03-10 10:05:00,33.4,30.0,30.38,SSE,155,0.0,0.0,87,0.01,,SKC,0.01,VWS V14.01,2013-03-10 14:05:00,
2013-03-10 10:06:00,33.4,30.0,30.38,SSE,155,0.0,0.0,87,0.01,,SKC,0.01,VWS V14.01,2013-03-10 14:06:00,
2013-03-10 10:07:00,33.4,30.0,30.38,SSE,155,0.0,0.0,87,0.01,,SKC,0.01,VWS V14.01,2013-03-10 14:07:00,
2013-03-10 10:09:00,33.4,30.0,30.38,SSE,160,1.0,3.0,87,0.01,,SKC,0.01,VWS V14.01,2013-03-10 14:09:00,
2013-03-10 10:10:00,33.4,30.0,30.38,SSE,151,3.0,3.0,87,0.01,,SKC,0.01,VWS V14.01,2013-03-10 14:10:00,
2013-03-10 10:11:00,33.8,30.4,30.38,SSE,160,2.0,3.0,87,0.01,,SKC,0.01,VWS V14.01,2013-03-10 14:11:00,
2013-03-10 10:12:00,33.8,30.4,30.38,SSE,160,2.0,3.0,87,0.01,,SKC,0.01,VWS V14.01,2013-03-10 14:12:00,
2013-03-10 10:14:00,33.8,30.4,30.38,North,352,2.0,3.0,87,0.01,,SKC,0.01,VWS V14.01,2013-03-10 14:14:00,
2013-03-10 10:15:00,33.8,30.4,30.38,North,352,2.0,3.0,87,0.01,,SKC,0.01,VWS V14.01,2013-03-10 14:15:00,
2013-03-10 10:16:00,33.8,30.4,30.38,North,357,1.0,3.0,87,0.01,,SKC,0.01,VWS V14.01,2013-03-10 14:16:00,
2013-03-10 10:17:00,33.8,30.4,30.38,North,357,1.0,3.0,87,0.01,,SKC,0.01,VWS V14.01,2013-03-10 14:17:00,
2013-03-10 10:19:00,34.3,30.8,30.38,SSE,150,3.0,3.0,87,0.01,,SKC,0.01,VWS V14.01,2013-03-10 14:19:00,
2013-03-10 10:20:00,34.3,30.8,30.38,SSE,150,3.0,3.0,87,0.01,,SKC,0.01,VWS V14.01,2013-03-10 14:20:00,
2013-03-10 10:22:00,34.3,30.8,30.38,North,357,2.0,3.0,87,0.00,,SKC,0.01,VWS V14.01,2013-03-10 14:22:00,
2013-03-10 10:23:00,34.3,30.8,30.38,South,171,2.0,3.0,87,0.00,,SKC,0.01,VWS V14.01,2013-03-10 14:23:00,
2013-03-10 10:24:00,34.4,30.9,30.38,SSE,168,1.0,1.0,87,0.00,,SKC,0.01,VWS V14.01,2013-03-10 14:24:00,
2013-03-10 10:25:00,34.4,30.9,30.38,SSE,168,1.0,3.0,87,0.00,,SKC,0.01,VWS V14.01,2013-03-10 14:25:00,
2013-03-10 10:27:00,34.4,30.9,30.38,SSE,168,1.0,1.0,87,0.00,,SKC,0.01,VWS V14.01,2013-03-10 14:27:00,
2013-03-10 10:28:00,34.4,30.9,30.38,SSE,168,1.0,1.0,87,0.00,,SKC,0.01,VWS V14.01,2013-03-10 14:28:00,
2013-03-10 10:29:00,34.9,31.4,30.39,South,179,2.0,2.0,87,0.00,,SKC,0.01,VWS V14.01,2013-03-10 14:29:00,
2013-03-10 10:30:00,34.4,30.9,30.39,SSE,168,1.0,1.0,87,0.00,,SKC,0.01,VWS V14.01,2013-03-10 14:30:00,
2013-03-10 10:32:00,35.0,31.5,30.39,SSE,168,3.0,3.0,87,0.00,,SKC,0.01,VWS V14.01,2013-03-10 14:32:00,
2013-03-10 10:33:00,35.0,31.5,30.39,SSE,168,3.0,3.0,87,0.00,,SKC,0.01,VWS V14.01,2013-03-10 14:33:00,
2013-03-10 10:35:00,35.0,31.5,30.39,SSE,161,3.0,3.0,87,0.00,,SKC,0.01,VWS V14.01,2013-03-10 14:35:00,
2013-03-10 10:37:00,35.0,31.5,30.39,SSE,161,3.0,3.0,87,0.00,,SKC,0.01,VWS V14.01,2013-03-10 14:37:00,
2013-03-10 10:38:00,35.0,31.5,30.39,SSE,161,3.0,3.0,87,0.00,,SKC,0.01,VWS V14.01,2013-03-10 14:38:00,
2013-03-10 10:39:00,35.0,31.5,30.39,SSE,161,3.0,3.0,87,0.00,,SKC,0.01,VWS V14.01,2013-03-10 14:39:00,
2013-03-10 10:40:00,35.3,31.8,30.39,SSE,161,0.0,3.0,87,0.00,,SKC,0.01,VWS V14.01,2013-03-10 14:40:00,
2013-03-10 10:42:00,35.3,31.8,30.39,SSE,164,0.0,3.0,87,0.00,,SKC,0.01,VWS V14.01,2013-03-10 14:42:00,
2013-03-10 10:43:00,35.3,31.8,30.39,SSE,164,0.0,3.0,87,0.00,,SKC,0.01,VWS V14.01,2013-03-10 14:43:00,
2013-03-10 10:44:00,35.5,32.0,30.38,SSE,167,0.0,3.0,87,0.00,,SKC,0.01,VWS V14.01,2013-03-10 14:44:00,
2013-03-10 10:45:00,35.5,32.0,30.38,SSE,167,0.0,0.0,87,0.00,,SKC,0.01,VWS V14.01,2013-03-10 14:45:00,
2013-03-10 10:48:00,35.6,32.1,30.38,SSE,167,2.0,3.0,87,0.00,,SKC,0.01,VWS V14.01,2013-03-10 14:48:00,
2013-03-10 10:49:00,35.8,32.3,30.38,SSE,158,1.0,1.0,87,0.00,,SKC,0.01,VWS V14.01,2013-03-10 14:49:00,
2013-03-10 10:50:00,35.8,32.3,30.38,SSE,158,1.0,3.0,87,0.00,,SKC,0.01,VWS V14.01,2013-03-10 14:50:00,
2013-03-10 10:51:00,35.9,32.4,30.38,SSE,157,0.0,1.0,87,0.00,,SKC,0.01,VWS V14.01,2013-03-10 14:51:00,
2013-03-10 10:53:00,36.0,32.5,30.38,SSE,147,4.0,5.0,87,0.00,,SKC,0.01,VWS V14.01,2013-03-10 14:53:00,
2013-03-10 10:54:00,36.0,32.5,30.38,SSE,147,4.0,5.0,87,0.00,,SKC,0.01,VWS V14.01,2013-03-10 14:54:00,
2013-03-10 10:55:00,36.0,32.5,30.38,North,350,3.0,3.0,87,0.00,,SKC,0.01,VWS V14.01,2013-03-10 14:55:00,
2013-03-10 10:56:00,36.0,32.5,30.38,South,184,2.0,6.0,87,0.00,,SKC,0.01,VWS V14.01,2013-03-10 14:56:00,
2013-03-10 10:58:00,36.2,32.7,30.38,SSE,161,5.0,6.0,87,0.00,,SKC,0.01,VWS V14.01,2013-03-10 14:58:00,
2013-03-10 10:59:00,36.2,32.7,30.39,SSE,162,5.0,6.0,87,0.00,,SKC,0.01,VWS V14.01,2013-03-10 14:59:00,
2013-03-10 11:00:00,36.2,32.7,30.39,South,182,2.0,4.0,87,0.00,,SKC,0.01,VWS V14.01,2013-03-10 15:00:00,
2013-03-10 11:01:00,36.3,32.8,30.39,South,181,2.0,4.0,87,0.00,,SKC,0.01,VWS V14.01,2013-03-10 15:01:00,
2013-03-10 11:03:00,36.5,33.0,30.39,South,175,1.0,4.0,87,0.00,,SKC,0.01,VWS V14.01,2013-03-10 15:03:00,
2013-03-10 11:04:00,36.5,33.0,30.39,South,186,1.0,4.0,87,0.00,,SKC,0.01,VWS V14.01,2013-03-10 15:04:00,
2013-03-10 11:05:00,36.5,33.0,30.39,South,186,1.0,1.0,87,0.00,,SKC,0.01,VWS V14.01,2013-03-10 15:05:00,
2013-03-10 11:06:00,36.5,33.0,30.39,South,176,3.0,3.0,87,0.00,,SKC,0.01,VWS V14.01,2013-03-10 15:06:00,
2013-03-10 11:08:00,36.6,29.8,30.39,SSW,210,2.0,6.0,76,0.00,,SKC,0.01,VWS V14.01,2013-03-10 15:08:00,
2013-03-10 11:10:00,36.8,29.6,30.39,SSW,198,0.0,0.0,75,0.00,,SKC,0.01,VWS V14.01,2013-03-10 15:10:00,
2013-03-10 11:11:00,36.9,29.7,30.39,South,179,2.0,5.0,75,0.00,,SKC,0.01,VWS V14.01,2013-03-10 15:11:00,
2013-03-10 11:13:00,36.9,29.7,30.38,South,171,3.0,5.0,75,0.00,,SKC,0.01,VWS V14.01,2013-03-10 15:13:00,
2013-03-10 11:15:00,36.9,29.7,30.38,South,171,3.0,3.0,75,0.00,,SKC,0.01,VWS V14.01,2013-03-10 15:15:00,
2013-03-10 11:16:00,36.9,29.7,30.38,South,171,3.0,3.0,75,0.00,,SKC,0.01,VWS V14.01,2013-03-10 15:16:00,
2013-03-10 11:19:00,37.2,29.4,30.38,SSW,212,3.0,4.0,73,0.00,,SKC,0.01,VWS V14.01,2013-03-10 15:19:00,
2013-03-10 11:20:00,37.2,29.4,30.38,SW,226,2.0,3.0,73,0.00,,SKC,0.01,VWS V14.01,2013-03-10 15:20:00,
2013-03-10 11:22:00,37.2,29.4,30.38,SW,217,5.0,5.0,73,0.00,,SKC,0.01,VWS V14.01,2013-03-10 15:22:00,
2013-03-10 11:24:00,37.2,29.4,30.38,SSW,196,3.0,5.0,73,0.00,,SKC,0.01,VWS V14.01,2013-03-10 15:24:00,
2013-03-10 11:25:00,37.2,29.4,30.38,SSE,167,4.0,6.0,73,0.00,,SKC,0.01,VWS V14.01,2013-03-10 15:25:00,
2013-03-10 11:26:00,37.2,29.4,30.38,SSE,167,4.0,6.0,73,0.00,,SKC,0.01,VWS V14.01,2013-03-10 15:26:00,
2013-03-10 11:27:00,37.2,29.4,30.38,SSE,167,4.0,6.0,73,0.00,,SKC,0.01,VWS V14.01,2013-03-10 15:27:00,
2013-03-10 11:29:00,37.2,29.4,30.38,SSE,162,2.0,2.0,73,0.00,,SKC,0.01,VWS V14.01,2013-03-10 15:29:00,
2013-03-10 11:30:00,37.2,29.4,30.38,SSE,162,2.0,2.0,73,0.00,,SKC,0.01,VWS V14.01,2013-03-10 15:30:00,
2013-03-10 11:31:00,37.2,29.4,30.38,SSE,162,5.0,5.0,73,0.00,,SKC,0.01,VWS V14.01,2013-03-10 15:31:00,
2013-03-10 11:32:00,37.2,29.4,30.38,South,184,4.0,5.0,73,0.00,,SKC,0.01,VWS V14.01,2013-03-10 15:32:00,
2013-03-10 11:34:00,37.2,29.4,30.38,South,172,1.0,1.0,73,0.00,,SKC,0.01,VWS V14.01,2013-03-10 15:34:00,
2013-03-10 11:35:00,37.2,29.4,30.38,SSE,168,2.0,2.0,73,0.00,,SKC,0.01,VWS V14.01,2013-03-10 15:35:00,
2013-03-10 11:36:00,37.5,29.6,30.38,South,184,3.0,3.0,73,0.00,,SKC,0.01,VWS V14.01,2013-03-10 15:36:00,
2013-03-10 11:37:00,37.5,29.6,30.38,South,175,6.0,6.0,73,0.00,,SKC,0.01,VWS V14.01,2013-03-10 15:37:00,
2013-03-10 11:40:00,37.5,29.6,30.38,South,172,3.0,3.0,73,0.00,,SKC,0.01,VWS V14.01,2013-03-10 15:40:00,
2013-03-10 11:41:00,37.5,29.6,30.38,South,172,3.0,3.0,73,0.00,,SKC,0.01,VWS V14.01,2013-03-10 15:41:00,
2013-03-10 11:43:00,37.5,29.6,30.38,South,172,3.0,3.0,73,0.00,,SKC,0.01,VWS V14.01,2013-03-10 15:43:00,
2013-03-10 11:45:00,37.3,29.5,30.38,SSE,160,2.0,2.0,73,0.00,,SKC,0.01,VWS V14.01,2013-03-10 15:45:00,
2013-03-10 11:46:00,37.3,29.5,30.38,SSE,160,2.0,2.0,73,0.00,,SKC,0.01,VWS V14.01,2013-03-10 15:46:00,
2013-03-10 11:47:00,37.3,29.5,30.38,SSE,160,2.0,2.0,73,0.00,,SKC,0.01,VWS V14.01,2013-03-10 15:47:00,
2013-03-10 11:48:00,37.5,29.6,30.38,South,184,1.0,2.0,73,0.00,,SKC,0.01,VWS V14.01,2013-03-10 15:48:00,
2013-03-10 11:50:00,37.5,29.6,30.38,SSE,162,3.0,3.0,73,0.00,,SKC,0.01,VWS V14.01,2013-03-10 15:50:00,
2013-03-10 11:52:00,37.5,29.6,30.38,SSE,165,1.0,3.0,73,0.00,,SKC,0.01,VWS V14.01,2013-03-10 15:52:00,
2013-03-10 11:53:00,37.9,30.0,30.38,SSE,161,2.0,3.0,73,0.00,,SKC,0.01,VWS V14.01,2013-03-10 15:53:00,
2013-03-10 11:55:00,37.9,30.0,30.38,SSE,162,1.0,1.0,73,0.00,,SKC,0.01,VWS V14.01,2013-03-10 15:55:00,
2013-03-10 11:57:00,37.9,30.0,30.38,SSE,162,1.0,1.0,73,0.00,,SKC,0.01,VWS V14.01,2013-03-10 15:57:00,
2013-03-10 11:58:00,37.9,30.0,30.38,SSE,162,1.0,1.0,73,0.00,,SKC,0.01,VWS V14.01,2013-03-10 15:58:00,
2013-03-10 12:00:00,38.3,30.4,30.37,SSW,208,2.0,2.0,73,0.00,,SKC,0.01,VWS V14.01,2013-03-10 16:00:00,
2013-03-10 12:02:00,38.3,29.7,30.37,SSE,167,1.0,3.0,71,0.00,,SKC,0.01,VWS V14.01,2013-03-10 16:02:00,
2013-03-10 12:03:00,38.3,29.7,30.37,SW,224,1.0,3.0,71,0.00,,SKC,0.01,VWS V14.01,2013-03-10 16:03:00,
2013-03-10 12:05:00,38.3,29.7,30.37,SSW,196,2.0,3.0,71,0.00,,SKC,0.01,VWS V14.01,2013-03-10 16:05:00,
2013-03-10 12:06:00,38.9,30.3,30.37,SW,227,5.0,6.0,71,0.00,,SKC,0.01,VWS V14.01,2013-03-10 16:06:00,
2013-03-10 12:07:00,38.9,30.3,30.37,SW,233,1.0,6.0,71,0.00,,SKC,0.01,VWS V14.01,2013-03-10 16:07:00,
2013-03-10 12:08:00,39.1,30.5,30.37,SW,224,1.0,6.0,71,0.00,,SKC,0.01,VWS V14.01,2013-03-10 16:08:00,
2013-03-10 12:10:00,39.2,29.9,30.37,South,188,2.0,7.0,69,0.00,,SKC,0.01,VWS V14.01,2013-03-10 16:10:00,
2013-03-10 12:11:00,39.2,29.9,30.37,South,191,2.0,2.0,69,0.00,,SKC,0.01,VWS V14.01,2013-03-10 16:11:00,
2013-03-10 12:12:00,39.2,29.9,30.37,South,191,2.0,2.0,69,0.00,,SKC,0.01,VWS V14.01,2013-03-10 16:12:00,
2013-03-10 12:13:00,39.2,29.9,30.37,South,191,2.0,2.0,69,0.00,,SKC,0.01,VWS V14.01,2013-03-10 16:13:00,
2013-03-10 12:14:00,39.2,29.9,30.37,South,191,2.0,2.0,69,0.00,,SKC,0.01,VWS V14.01,2013-03-10 16:14:00,
2013-03-10 12:15:00,39.2,29.9,30.37,South,191,2.0,2.0,69,0.00,,SKC,0.01,VWS V14.01,2013-03-10 16:15:00,
2013-03-10 12:17:00,39.2,29.9,30.37,South,191,2.0,2.0,69,0.00,,SKC,0.01,VWS V14.01,2013-03-10 16:17:00,
2013-03-10 12:18:00,39.2,29.9,30.37,South,191,2.0,2.0,69,0.00,,SKC,0.01,VWS V14.01,2013-03-10 16:18:00,
2013-03-10 12:19:00,39.2,29.9,30.37,South,191,2.0,2.0,69,0.00,,SKC,0.01,VWS V14.01,2013-03-10 16:19:00,
2013-03-10 12:20:00,39.8,30.5,30.37,South,181,3.0,3.0,69,0.00,,SKC,0.01,VWS V14.01,2013-03-10 16:20:00,
2013-03-10 12:22:00,39.8,30.5,30.37,South,179,3.0,3.0,69,0.00,,SKC,0.01,VWS V14.01,2013-03-10 16:22:00,
2013-03-10 12:23:00,39.3,29.6,30.37,South,189,1.0,3.0,68,0.00,,SKC,0.01,VWS V14.01,2013-03-10 16:23:00,
2013-03-10 12:24:00,39.3,29.6,30.37,South,188,1.0,3.0,68,0.00,,SKC,0.01,VWS V14.01,2013-03-10 16:24:00,
2013-03-10 12:25:00,39.3,29.6,30.37,South,184,2.0,2.0,68,0.00,,SKC,0.01,VWS V14.01,2013-03-10 16:25:00,
2013-03-10 12:27:00,39.3,29.6,30.37,South,186,1.0,5.0,68,0.00,,SKC,0.01,VWS V14.01,2013-03-10 16:27:00,
2013-03-10 12:29:00,39.3,29.6,30.36,South,171,2.0,5.0,68,0.00,,SKC,0.01,VWS V14.01,2013-03-10 16:29:00,
2013-03-10 12:30:00,39.3,29.6,30.36,South,179,1.0,1.0,68,0.00,,SKC,0.01,VWS V14.01,2013-03-10 16:30:00,
2013-03-10 12:32:00,39.6,29.9,30.36,SSE,158,5.0,5.0,68,0.00,,SKC,0.01,VWS V14.01,2013-03-10 16:32:00,
2013-03-10 12:34:00,39.6,29.9,30.36,SSE,158,5.0,5.0,68,0.00,,SKC,0.01,VWS V14.01,2013-03-10 16:34:00,
2013-03-10 12:35:00,39.6,29.9,30.36,South,175,4.0,4.0,68,0.00,,SKC,0.01,VWS V14.01,2013-03-10 16:35:00,
2013-03-10 12:38:00,39.6,29.9,30.36,South,172,0.0,4.0,68,0.00,,SKC,0.01,VWS V14.01,2013-03-10 16:38:00,
2013-03-10 12:39:00,39.6,29.9,30.36,South,176,0.0,4.0,68,0.00,,SKC,0.01,VWS V14.01,2013-03-10 16:39:00,
2013-03-10 12:40:00,39.9,30.2,30.36,South,176,0.0,0.0,68,0.00,,SKC,0.01,VWS V14.01,2013-03-10 16:40:00,
2013-03-10 12:43:00,40.2,30.1,30.36,South,169,1.0,3.0,67,0.00,,SKC,0.01,VWS V14.01,2013-03-10 16:43:00,
2013-03-10 12:44:00,40.5,30.4,30.35,SW,227,3.0,4.0,67,0.00,,SKC,0.01,VWS V14.01,2013-03-10 16:44:00,
2013-03-10 12:45:00,40.5,30.0,30.35,SW,222,2.0,4.0,66,0.00,,SKC,0.01,VWS V14.01,2013-03-10 16:45:00,
2013-03-10 12:48:00,40.6,29.4,30.35,SW,222,0.0,4.0,64,0.00,,SKC,0.01,VWS V14.01,2013-03-10 16:48:00,
2013-03-10 12:49:00,40.6,29.4,30.35,SW,224,1.0,4.0,64,0.00,,SKC,0.01,VWS V14.01,2013-03-10 16:49:00,
2013-03-10 12:50:00,40.8,29.6,30.35,SW,224,2.0,2.0,64,0.00,,SKC,0.01,VWS V14.01,2013-03-10 16:50:00,
2013-03-10 12:53:00,40.8,29.6,30.35,SW,224,1.0,5.0,64,0.00,,SKC,0.01,VWS V14.01,2013-03-10 16:53:00,
2013-03-10 12:54:00,40.8,29.6,30.35,SW,223,0.0,0.0,64,0.00,,SKC,0.01,VWS V14.01,2013-03-10 16:54:00,
2013-03-10 12:55:00,40.8,29.6,30.35,SW,223,0.0,0.0,64,0.00,,SKC,0.01,VWS V14.01,2013-03-10 16:55:00,
2013-03-10 12:56:00,40.8,29.6,30.35,SW,223,0.0,0.0,64,0.00,,SKC,0.01,VWS V14.01,2013-03-10 16:56:00,
2013-03-10 12:58:00,40.8,29.6,30.35,SW,223,0.0,0.0,64,0.00,,SKC,0.01,VWS V14.01,2013-03-10 16:58:00,
2013-03-10 12:59:00,40.8,29.6,30.35,SW,224,0.0,0.0,64,0.00,,SKC,0.01,VWS V14.01,2013-03-10 16:59:00,
2013-03-10 13:00:00,40.8,29.6,30.35,SW,223,0.0,0.0,64,0.00,,SKC,0.01,VWS V14.01,2013-03-10 17:00:00,
2013-03-10 13:01:00,41.8,30.5,30.35,South,191,5.0,5.0,64,0.00,,SKC,0.01,VWS V14.01,2013-03-10 17:01:00,
2013-03-10 13:05:00,41.9,29.9,30.35,SSW,196,1.0,2.0,62,0.00,,SKC,0.01,VWS V14.01,2013-03-10 17:05:00,
2013-03-10 13:06:00,41.9,29.9,30.35,SSW,199,0.0,2.0,62,0.00,,SKC,0.01,VWS V14.01,2013-03-10 17:06:00,
2013-03-10 13:10:00,41.8,29.4,30.35,SW,219,3.0,6.0,61,0.00,,SKC,0.01,VWS V14.01,2013-03-10 17:10:00,
2013-03-10 13:11:00,41.6,29.2,30.35,SW,229,0.0,5.0,61,0.00,,SKC,0.01,VWS V14.01,2013-03-10 17:11:00,
2013-03-10 13:15:00,41.5,29.5,30.34,SW,229,3.0,5.0,62,0.00,,SKC,0.01,VWS V14.01,2013-03-10 17:15:00,
2013-03-10 13:16:00,41.5,29.5,30.34,SW,222,3.0,3.0,62,0.00,,SKC,0.01,VWS V14.01,2013-03-10 17:16:00,
2013-03-10 13:17:00,41.3,29.3,30.34,SW,224,0.0,3.0,62,0.00,,SKC,0.01,VWS V14.01,2013-03-10 17:17:00,
2013-03-10 13:20:00,41.5,29.5,30.34,SW,216,0.0,3.0,62,0.00,,SKC,0.01,VWS V14.01,2013-03-10 17:20:00,
2013-03-10 13:21:00,41.6,29.6,30.34,SSW,212,0.0,3.0,62,0.00,,SKC,0.01,VWS V14.01,2013-03-10 17:21:00,
2013-03-10 13:22:00,41.8,29.8,30.34,SSW,210,0.0,3.0,62,0.00,,SKC,0.01,VWS V14.01,2013-03-10 17:22:00,
2013-03-10 13:25:00,41.9,29.9,30.34,South,188,2.0,3.0,62,0.00,,SKC,0.01,VWS V14.01,2013-03-10 17:25:00,
2013-03-10 13:26:00,42.1,30.0,30.34,SW,216,0.0,2.0,62,0.00,,SKC,0.01,VWS V14.01,2013-03-10 17:26:00,
2013-03-10 13:27:00,42.2,30.1,30.34,SSW,199,4.0,5.0,62,0.00,,SKC,0.01,VWS V14.01,2013-03-10 17:27:00,
2013-03-10 13:28:00,42.2,29.3,30.34,SSW,196,2.0,5.0,60,0.00,,SKC,0.01,VWS V14.01,2013-03-10 17:28:00,
2013-03-10 13:30:00,42.2,29.3,30.33,South,176,7.0,8.0,60,0.00,,SKC,0.01,VWS V14.01,2013-03-10 17:30:00,
2013-03-10 13:31:00,41.9,29.0,30.33,South,175,0.0,8.0,60,0.00,,SKC,0.01,VWS V14.01,2013-03-10 17:31:00,
2013-03-10 13:32:00,42.1,29.2,30.33,South,185,2.0,8.0,60,0.00,,SKC,0.01,VWS V14.01,2013-03-10 17:32:00,
2013-03-10 13:33:00,42.1,29.2,30.33,South,185,2.0,8.0,60,0.00,,SKC,0.01,VWS V14.01,2013-03-10 17:33:00,
2013-03-10 13:35:00,42.1,29.2,30.33,SSW,192,0.0,8.0,60,0.00,,SKC,0.01,VWS V14.01,2013-03-10 17:35:00,
2013-03-10 13:36:00,42.1,29.2,30.33,South,181,6.0,8.0,60,0.00,,SKC,0.01,VWS V14.01,2013-03-10 17:36:00,
2013-03-10 13:37:00,42.1,29.2,30.33,South,179,0.0,8.0,60,0.00,,SKC,0.01,VWS V14.01,2013-03-10 17:37:00,
2013-03-10 13:38:00,42.1,29.2,30.33,SSW,200,2.0,8.0,60,0.00,,SKC,0.01,VWS V14.01,2013-03-10 17:38:00,
2013-03-10 13:39:00,41.9,29.0,30.33,SSW,193,3.0,8.0,60,0.00,,SKC,0.01,VWS V14.01,2013-03-10 17:39:00,
2013-03-10 13:40:00,41.9,29.0,30.33,SSW,193,3.0,8.0,60,0.00,,SKC,0.01,VWS V14.01,2013-03-10 17:40:00,
2013-03-10 13:42:00,42.1,29.2,30.33,South,186,1.0,3.0,60,0.00,,SKC,0.01,VWS V14.01,2013-03-10 17:42:00,
2013-03-10 13:44:00,42.1,29.2,30.33,South,191,0.0,3.0,60,0.00,,SKC,0.01,VWS V14.01,2013-03-10 17:44:00,
2013-03-10 13:45:00,42.1,29.2,30.33,SSW,208,2.0,3.0,60,0.00,,SKC,0.01,VWS V14.01,2013-03-10 17:45:00,
2013-03-10 13:47:00,42.2,29.3,30.33,South,189,0.0,5.0,60,0.00,,SKC,0.01,VWS V14.01,2013-03-10 17:47:00,
2013-03-10 13:48:00,42.2,29.3,30.33,SSE,157,0.0,5.0,60,0.00,,SKC,0.01,VWS V14.01,2013-03-10 17:48:00,
2013-03-10 13:49:00,42.3,29.4,30.33,SSE,158,0.0,5.0,60,0.00,,SKC,0.01,VWS V14.01,2013-03-10 17:49:00,
2013-03-10 13:50:00,42.3,29.4,30.33,South,169,0.0,5.0,60,0.00,,SKC,0.01,VWS V14.01,2013-03-10 17:50:00,
2013-03-10 13:52:00,42.5,29.6,30.33,SSW,205,0.0,5.0,60,0.00,,SKC,0.01,VWS V14.01,2013-03-10 17:52:00,
2013-03-10 13:53:00,42.6,29.7,30.33,SSW,213,0.0,5.0,60,0.00,,SKC,0.01,VWS V14.01,2013-03-10 17:53:00,
2013-03-10 13:54:00,42.6,29.7,30.33,South,174,1.0,5.0,60,0.00,,SKC,0.01,VWS V14.01,2013-03-10 17:54:00,
2013-03-10 13:55:00,42.6,29.7,30.33,South,174,1.0,5.0,60,0.00,,SKC,0.01,VWS V14.01,2013-03-10 17:55:00,
2013-03-10 13:57:00,42.8,29.9,30.33,SSW,202,1.0,2.0,60,0.00,,SKC,0.01,VWS V14.01,2013-03-10 17:57:00,
2013-03-10 13:59:00,42.9,30.0,30.33,South,189,4.0,4.0,60,0.00,,SKC,0.01,VWS V14.01,2013-03-10 17:59:00,
2013-03-10 14:00:00,42.8,29.9,30.33,South,186,0.0,4.0,60,0.00,,SKC,0.01,VWS V14.01,2013-03-10 18:00:00,
2013-03-10 14:03:00,43.1,29.8,30.33,North,356,5.0,6.0,59,0.00,,SKC,0.01,VWS V14.01,2013-03-10 18:03:00,
2013-03-10 14:04:00,43.1,29.8,30.33,SSE,158,5.0,5.0,59,0.00,,SKC,0.01,VWS V14.01,2013-03-10 18:04:00,
2013-03-10 14:05:00,42.9,29.6,30.33,SSE,160,2.0,5.0,59,0.00,,SKC,0.01,VWS V14.01,2013-03-10 18:05:00,
2013-03-10 14:06:00,42.9,29.6,30.33,SSE,161,0.0,5.0,59,0.00,,SKC,0.01,VWS V14.01,2013-03-10 18:06:00,
2013-03-10 14:08:00,42.9,29.2,30.33,South,179,0.0,5.0,58,0.00,,SKC,0.01,VWS V14.01,2013-03-10 18:08:00,
2013-03-10 14:10:00,43.1,29.8,30.33,SSW,196,0.0,0.0,59,0.00,,SKC,0.01,VWS V14.01,2013-03-10 18:10:00,
2013-03-10 14:11:00,43.1,29.8,30.33,SSW,193,0.0,5.0,59,0.00,,SKC,0.01,VWS V14.01,2013-03-10 18:11:00,
2013-03-10 14:13:00,43.1,29.8,30.33,South,182,3.0,5.0,59,0.00,,SKC,0.01,VWS V14.01,2013-03-10 18:13:00,
2013-03-10 14:15:00,43.1,29.8,30.33,SSW,195,0.0,1.0,59,0.00,,SKC,0.01,VWS V14.01,2013-03-10 18:15:00,
2013-03-10 14:16:00,43.1,30.2,30.33,SSW,195,0.0,1.0,60,0.00,,SKC,0.01,VWS V14.01,2013-03-10 18:16:00,
2013-03-10 14:19:00,43.2,29.9,30.33,SSW,196,0.0,1.0,59,0.00,,SKC,0.01,VWS V14.01,2013-03-10 18:19:00,
2013-03-10 14:20:00,43.2,29.9,30.33,SSW,195,0.0,0.0,59,0.00,,SKC,0.01,VWS V14.01,2013-03-10 18:20:00,
2013-03-10 14:21:00,43.2,29.9,30.33,SSW,195,0.0,0.0,59,0.00,,SKC,0.01,VWS V14.01,2013-03-10 18:21:00,
2013-03-10 14:24:00,43.2,29.9,30.33,SSW,195,0.0,0.0,59,0.00,,SKC,0.01,VWS V14.01,2013-03-10 18:24:00,
2013-03-10 14:25:00,43.2,29.9,30.33,SSW,195,0.0,0.0,59,0.00,,SKC,0.01,VWS V14.01,2013-03-10 18:25:00,
2013-03-10 14:26:00,43.2,29.9,30.33,SSW,195,0.0,0.0,59,0.00,,SKC,0.01,VWS V14.01,2013-03-10 18:26:00,
2013-03-10 14:27:00,43.2,29.9,30.33,SSW,195,0.0,0.0,59,0.00,,SKC,0.01,VWS V14.01,2013-03-10 18:27:00,
2013-03-10 14:29:00,43.2,29.9,30.33,SSW,195,0.0,0.0,59,0.00,,SKC,0.01,VWS V14.01,2013-03-10 18:29:00,
2013-03-10 14:30:00,43.2,29.9,30.33,SSW,195,0.0,0.0,59,0.00,,SKC,0.01,VWS V14.01,2013-03-10 18:30:00,
2013-03-10 14:31:00,43.2,29.9,30.33,SSW,195,0.0,0.0,59,0.00,,SKC,0.01,VWS V14.01,2013-03-10 18:31:00,
2013-03-10 14:32:00,43.2,29.9,30.33,SSW,195,0.0,0.0,59,0.00,,SKC,0.01,VWS V14.01,2013-03-10 18:32:00,
2013-03-10 14:35:00,43.2,29.9,30.33,SSW,195,0.0,0.0,59,0.00,,SKC,0.01,VWS V14.01,2013-03-10 18:35:00,
2013-03-10 14:37:00,43.2,29.9,30.33,SSW,195,0.0,0.0,59,0.00,,SKC,0.01,VWS V14.01,2013-03-10 18:37:00,
2013-03-10 14:40:00,43.2,29.9,30.33,SSW,195,0.0,0.0,59,0.00,,SKC,0.01,VWS V14.01,2013-03-10 18:40:00,
2013-03-10 14:42:00,43.2,29.9,30.33,SSW,195,0.0,0.0,59,0.00,,SKC,0.01,VWS V14.01,2013-03-10 18:42:00,
2013-03-10 14:45:00,43.2,29.9,30.32,SSW,195,0.0,0.0,59,0.00,,SKC,0.01,VWS V14.01,2013-03-10 18:45:00,
2013-03-10 14:46:00,43.2,29.9,30.32,SSW,195,0.0,0.0,59,0.00,,SKC,0.01,VWS V14.01,2013-03-10 18:46:00,
2013-03-10 14:47:00,43.1,29.8,30.32,SW,234,0.0,0.0,59,0.00,,SKC,0.01,VWS V14.01,2013-03-10 18:47:00,
2013-03-10 14:48:00,43.1,29.3,30.32,WSW,237,0.0,0.0,58,0.00,,SKC,0.01,VWS V14.01,2013-03-10 18:48:00,
2013-03-10 14:50:00,43.1,29.3,30.32,SW,236,0.0,3.0,58,0.00,,SKC,0.01,VWS V14.01,2013-03-10 18:50:00,
2013-03-10 14:51:00,43.1,29.3,30.32,SW,236,0.0,3.0,58,0.00,,SKC,0.01,VWS V14.01,2013-03-10 18:51:00,
2013-03-10 14:52:00,43.1,29.3,30.32,SW,234,0.0,3.0,58,0.00,,SKC,0.01,VWS V14.01,2013-03-10 18:52:00,
2013-03-10 14:53:00,43.1,29.3,30.32,WSW,239,0.0,3.0,58,0.00,,SKC,0.01,VWS V14.01,2013-03-10 18:53:00,
2013-03-10 14:55:00,43.2,29.4,30.32,SW,236,0.0,3.0,58,0.00,,SKC,0.01,VWS V14.01,2013-03-10 18:55:00,
2013-03-10 14:56:00,43.2,29.4,30.32,SW,234,0.0,0.0,58,0.00,,SKC,0.01,VWS V14.01,2013-03-10 18:56:00,
2013-03-10 14:57:00,43.3,29.5,30.32,SSW,213,2.0,5.0,58,0.00,,SKC,0.01,VWS V14.01,2013-03-10 18:57:00,
2013-03-10 14:58:00,43.2,29.4,30.32,SW,217,0.0,5.0,58,0.00,,SKC,0.01,VWS V14.01,2013-03-10 18:58:00,
2013-03-10 15:00:00,43.2,29.4,30.32,SW,217,0.0,5.0,58,0.00,,SKC,0.01,VWS V14.01,2013-03-10 19:00:00,
2013-03-10 15:01:00,43.2,29.9,30.32,SW,216,0.0,0.0,59,0.00,,SKC,0.01,VWS V14.01,2013-03-10 19:01:00,
2013-03-10 15:02:00,43.3,30.0,30.32,SW,224,2.0,6.0,59,0.00,,SKC,0.01,VWS V14.01,2013-03-10 19:02:00,
2013-03-10 15:03:00,43.2,29.4,30.32,SW,224,0.0,6.0,58,0.00,,SKC,0.01,VWS V14.01,2013-03-10 19:03:00,
2013-03-10 15:05:00,43.2,29.4,30.32,SSW,198,2.0,6.0,58,0.00,,SKC,0.01,VWS V14.01,2013-03-10 19:05:00,
2013-03-10 15:06:00,43.2,29.4,30.32,South,182,0.0,4.0,58,0.00,,SKC,0.01,VWS V14.01,2013-03-10 19:06:00,
2013-03-10 15:08:00,43.2,29.0,30.32,South,171,2.0,6.0,57,0.00,,SKC,0.01,VWS V14.01,2013-03-10 19:08:00,
2013-03-10 15:09:00,43.2,29.4,30.32,South,172,0.0,6.0,58,0.00,,SKC,0.01,VWS V14.01,2013-03-10 19:09:00,
2013-03-10 15:10:00,43.2,29.4,30.32,South,174,0.0,6.0,58,0.00,,SKC,0.01,VWS V14.01,2013-03-10 19:10:00,
2013-03-10 15:11:00,43.3,30.0,30.32,South,172,0.0,0.0,59,0.00,,SKC,0.01,VWS V14.01,2013-03-10 19:11:00,
2013-03-10 15:12:00,43.3,30.0,30.32,South,172,0.0,0.0,59,0.00,,SKC,0.01,VWS V14.01,2013-03-10 19:12:00,
2013-03-10 15:13:00,43.3,30.0,30.32,South,169,0.0,0.0,59,0.00,,SKC,0.01,VWS V14.01,2013-03-10 19:13:00,
2013-03-10 15:14:00,43.5,29.7,30.32,SSW,196,1.0,2.0,58,0.00,,SKC,0.01,VWS V14.01,2013-03-10 19:14:00,
2013-03-10 15:15:00,43.5,29.7,30.32,SSW,206,2.0,2.0,58,0.00,,SKC,0.01,VWS V14.01,2013-03-10 19:15:00,
2013-03-10 15:16:00,43.3,29.1,30.32,SW,215,0.0,2.0,57,0.00,,SKC,0.01,VWS V14.01,2013-03-10 19:16:00,
2013-03-10 15:17:00,43.3,29.1,30.32,SSW,206,0.0,2.0,57,0.00,,SKC,0.01,VWS V14.01,2013-03-10 19:17:00,
2013-03-10 15:18:00,43.3,29.1,30.32,SSW,206,0.0,2.0,57,0.00,,SKC,0.01,VWS V14.01,2013-03-10 19:18:00,
2013-03-10 15:19:00,43.3,29.1,30.32,SSW,208,0.0,2.0,57,0.00,,SKC,0.01,VWS V14.01,2013-03-10 19:19:00,
2013-03-10 15:20:00,43.3,29.1,30.32,SSW,209,0.0,2.0,57,0.00,,SKC,0.01,VWS V14.01,2013-03-10 19:20:00,
2013-03-10 15:22:00,43.6,29.4,30.32,SSW,206,0.0,0.0,57,0.00,,SKC,0.01,VWS V14.01,2013-03-10 19:22:00,
2013-03-10 15:24:00,43.8,29.6,30.32,SSW,209,0.0,0.0,57,0.00,,SKC,0.01,VWS V14.01,2013-03-10 19:24:00,
2013-03-10 15:25:00,43.8,29.6,30.32,SSW,212,0.0,0.0,57,0.00,,SKC,0.01,VWS V14.01,2013-03-10 19:25:00,
2013-03-10 15:27:00,43.9,29.7,30.32,South,182,0.0,2.0,57,0.00,,SKC,0.01,VWS V14.01,2013-03-10 19:27:00,
2013-03-10 15:28:00,43.9,29.7,30.32,South,181,0.0,2.0,57,0.00,,SKC,0.01,VWS V14.01,2013-03-10 19:28:00,
2013-03-10 15:29:00,43.9,29.7,30.32,South,184,0.0,2.0,57,0.00,,SKC,0.01,VWS V14.01,2013-03-10 19:29:00,
2013-03-10 15:30:00,43.9,29.7,30.32,South,184,0.0,2.0,57,0.00,,SKC,0.01,VWS V14.01,2013-03-10 19:30:00,
2013-03-10 15:32:00,43.9,29.7,30.32,SW,229,0.0,4.0,57,0.00,,SKC,0.01,VWS V14.01,2013-03-10 19:32:00,
2013-03-10 15:33:00,43.9,29.7,30.32,SW,232,3.0,4.0,57,0.00,,SKC,0.01,VWS V14.01,2013-03-10 19:33:00,
2013-03-10 15:34:00,43.8,29.1,30.32,SW,226,0.0,0.0,56,0.00,,SKC,0.01,VWS V14.01,2013-03-10 19:34:00,
2013-03-10 15:35:00,43.6,29.0,30.32,SSW,203,0.0,0.0,56,0.00,,SKC,0.01,VWS V14.01,2013-03-10 19:35:00,
2013-03-10 15:37:00,43.6,29.0,30.32,SSW,199,0.0,0.0,56,0.00,,SKC,0.01,VWS V14.01,2013-03-10 19:37:00,
2013-03-10 15:38:00,43.6,29.0,30.32,SSW,199,0.0,0.0,56,0.00,,SKC,0.01,VWS V14.01,2013-03-10 19:38:00,
2013-03-10 15:39:00,43.8,29.1,30.32,SSW,195,0.0,0.0,56,0.00,,SKC,0.01,VWS V14.01,2013-03-10 19:39:00,
2013-03-10 15:40:00,43.9,29.2,30.31,SSW,203,0.0,3.0,56,0.00,,SKC,0.01,VWS V14.01,2013-03-10 19:40:00,
2013-03-10 15:41:00,43.9,29.2,30.32,SSW,193,0.0,0.0,56,0.00,,SKC,0.01,VWS V14.01,2013-03-10 19:41:00,
2013-03-10 15:42:00,43.9,29.2,30.32,SSW,198,0.0,0.0,56,0.00,,SKC,0.01,VWS V14.01,2013-03-10 19:42:00,
2013-03-10 15:43:00,43.9,29.2,30.32,SSW,196,0.0,0.0,56,0.00,,SKC,0.01,VWS V14.01,2013-03-10 19:43:00,
2013-03-10 15:45:00,44.1,29.4,30.31,SW,216,0.0,0.0,56,0.00,,SKC,0.01,VWS V14.01,2013-03-10 19:45:00,
2013-03-10 15:46:00,43.9,29.2,30.31,SW,226,0.0,2.0,56,0.00,,SKC,0.01,VWS V14.01,2013-03-10 19:46:00,
2013-03-10 15:47:00,43.9,29.2,30.31,SW,229,0.0,2.0,56,0.00,,SKC,0.01,VWS V14.01,2013-03-10 19:47:00,
2013-03-10 15:48:00,43.9,29.2,30.31,WSW,240,3.0,3.0,56,0.00,,SKC,0.01,VWS V14.01,2013-03-10 19:48:00,
2013-03-10 15:50:00,43.8,29.1,30.31,SW,230,7.0,7.0,56,0.00,,SKC,0.01,VWS V14.01,2013-03-10 19:50:00,
2013-03-10 15:51:00,43.6,29.0,30.31,SW,229,0.0,7.0,56,0.00,,SKC,0.01,VWS V14.01,2013-03-10 19:51:00,
2013-03-10 15:52:00,43.8,29.6,30.31,WSW,237,2.0,7.0,57,0.00,,SKC,0.01,VWS V14.01,2013-03-10 19:52:00,
2013-03-10 15:53:00,43.6,29.4,30.31,SW,233,2.0,7.0,57,0.00,,SKC,0.01,VWS V14.01,2013-03-10 19:53:00,
2013-03-10 15:55:00,43.6,29.0,30.31,WSW,240,2.0,7.0,56,0.00,,SKC,0.01,VWS V14.01,2013-03-10 19:55:00,
2013-03-10 15:56:00,43.5,28.9,30.31,WSW,239,0.0,3.0,56,0.00,,SKC,0.01,VWS V14.01,2013-03-10 19:56:00,
2013-03-10 15:57:00,43.6,29.0,30.31,WSW,239,0.0,3.0,56,0.00,,SKC,0.01,VWS V14.01,2013-03-10 19:57:00,
2013-03-10 15:58:00,43.6,29.0,30.31,SW,217,0.0,3.0,56,0.00,,SKC,0.01,VWS V14.01,2013-03-10 19:58:00,
2013-03-10 15:59:00,43.8,29.1,30.31,SW,217,0.0,0.0,56,0.00,,SKC,0.01,VWS V14.01,2013-03-10 19:59:00,
2013-03-10 16:00:00,43.8,29.1,30.31,SW,217,0.0,3.0,56,0.00,,SKC,0.01,VWS V14.01,2013-03-10 20:00:00,
2013-03-10 16:02:00,43.9,28.8,30.31,SW,217,0.0,0.0,55,0.00,,SKC,0.01,VWS V14.01,2013-03-10 20:02:00,
2013-03-10 16:03:00,43.9,28.8,30.31,SW,220,2.0,2.0,55,0.00,,SKC,0.01,VWS V14.01,2013-03-10 20:03:00,
2013-03-10 16:04:00,43.9,29.2,30.31,WSW,243,0.0,0.0,56,0.00,,SKC,0.01,VWS V14.01,2013-03-10 20:04:00,
2013-03-10 16:05:00,43.9,29.2,30.31,WSW,240,0.0,3.0,56,0.00,,SKC,0.01,VWS V14.01,2013-03-10 20:05:00,
2013-03-10 16:07:00,43.8,29.1,30.31,WSW,237,0.0,4.0,56,0.00,,SKC,0.01,VWS V14.01,2013-03-10 20:07:00,
2013-03-10 16:08:00,43.6,29.0,30.31,SW,236,2.0,5.0,56,0.00,,SKC,0.01,VWS V14.01,2013-03-10 20:08:00,
2013-03-10 16:10:00,43.6,29.0,30.31,WSW,241,1.0,3.0,56,0.00,,SKC,0.01,VWS V14.01,2013-03-10 20:10:00,
2013-03-10 16:12:00,43.9,29.2,30.31,WSW,240,0.0,3.0,56,0.00,,SKC,0.01,VWS V14.01,2013-03-10 20:12:00,
2013-03-10 16:13:00,43.9,29.2,30.31,WSW,239,3.0,6.0,56,0.00,,SKC,0.01,VWS V14.01,2013-03-10 20:13:00,
2013-03-10 16:14:00,43.9,29.2,30.31,WSW,239,5.0,5.0,56,0.00,,SKC,0.01,VWS V14.01,2013-03-10 20:14:00,
2013-03-10 16:15:00,43.9,29.2,30.31,WSW,240,2.0,5.0,56,0.00,,SKC,0.01,VWS V14.01,2013-03-10 20:15:00,
2013-03-10 16:17:00,43.8,29.1,30.31,WSW,237,0.0,5.0,56,0.00,,SKC,0.01,VWS V14.01,2013-03-10 20:17:00,
2013-03-10 16:18:00,43.8,29.1,30.31,WSW,237,0.0,5.0,56,0.00,,SKC,0.01,VWS V14.01,2013-03-10 20:18:00,
2013-03-10 16:19:00,43.8,29.1,30.31,WSW,241,1.0,1.0,56,0.00,,SKC,0.01,VWS V14.01,2013-03-10 20:19:00,
2013-03-10 16:20:00,43.8,29.1,30.31,WSW,253,1.0,1.0,56,0.00,,SKC,0.01,VWS V14.01,2013-03-10 20:20:00,
2013-03-10 16:23:00,43.8,29.6,30.31,WSW,247,0.0,5.0,57,0.00,,SKC,0.01,VWS V14.01,2013-03-10 20:23:00,
2013-03-10 16:24:00,43.8,29.6,30.31,WSW,246,0.0,5.0,57,0.00,,SKC,0.01,VWS V14.01,2013-03-10 20:24:00,
2013-03-10 16:25:00,43.8,29.6,30.31,WSW,244,0.0,0.0,57,0.00,,SKC,0.01,VWS V14.01,2013-03-10 20:25:00,
2013-03-10 16:28:00,43.9,29.2,30.31,WSW,239,1.0,6.0,56,0.00,,SKC,0.01,VWS V14.01,2013-03-10 20:28:00,
2013-03-10 16:29:00,43.9,29.2,30.31,WSW,239,0.0,6.0,56,0.00,,SKC,0.01,VWS V14.01,2013-03-10 20:29:00,
2013-03-10 16:30:00,43.9,29.7,30.31,SW,226,0.0,3.0,57,0.00,,SKC,0.01,VWS V14.01,2013-03-10 20:30:00,
2013-03-10 16:31:00,43.9,29.7,30.31,SW,227,0.0,3.0,57,0.00,,SKC,0.01,VWS V14.01,2013-03-10 20:31:00,
2013-03-10 16:33:00,43.9,29.7,30.31,SW,224,0.0,3.0,57,0.00,,SKC,0.01,VWS V14.01,2013-03-10 20:33:00,
2013-03-10 16:34:00,43.9,29.7,30.31,WSW,240,2.0,4.0,57,0.00,,SKC,0.01,VWS V14.01,2013-03-10 20:34:00,
2013-03-10 16:35:00,43.9,29.7,30.31,WSW,243,2.0,4.0,57,0.00,,SKC,0.01,VWS V14.01,2013-03-10 20:35:00,
2013-03-10 16:36:00,43.9,29.7,30.31,SW,220,0.0,3.0,57,0.00,,SKC,0.01,VWS V14.01,2013-03-10 20:36:00,
2013-03-10 16:38:00,43.9,29.2,30.31,SSW,198,0.0,3.0,56,0.00,,SKC,0.01,VWS V14.01,2013-03-10 20:38:00,
2013-03-10 16:39:00,43.9,29.2,30.31,SSW,205,0.0,3.0,56,0.00,,SKC,0.01,VWS V14.01,2013-03-10 20:39:00,
2013-03-10 16:40:00,43.9,29.2,30.31,SSW,203,0.0,3.0,56,0.00,,SKC,0.01,VWS V14.01,2013-03-10 20:40:00,
2013-03-10 16:41:00,43.9,29.2,30.31,SSW,209,0.0,0.0,56,0.00,,SKC,0.01,VWS V14.01,2013-03-10 20:41:00,
2013-03-10 16:43:00,43.9,29.7,30.31,SSW,209,0.0,0.0,57,0.00,,SKC,0.01,VWS V14.01,2013-03-10 20:43:00,
2013-03-10 16:44:00,44.1,29.4,30.31,SSW,208,0.0,0.0,56,0.00,,SKC,0.01,VWS V14.01,2013-03-10 20:44:00,
2013-03-10 16:45:00,44.1,29.4,30.31,SSW,208,0.0,0.0,56,0.00,,SKC,0.01,VWS V14.01,2013-03-10 20:45:00,
2013-03-10 16:46:00,44.1,29.9,30.31,SSW,208,0.0,0.0,57,0.00,,SKC,0.01,VWS V14.01,2013-03-10 20:46:00,
2013-03-10 16:49:00,44.1,29.4,30.31,SSW,205,0.0,0.0,56,0.00,,SKC,0.01,VWS V14.01,2013-03-10 20:49:00,
2013-03-10 16:50:00,44.1,29.4,30.31,SSW,202,0.0,0.0,56,0.00,,SKC,0.01,VWS V14.01,2013-03-10 20:50:00,
2013-03-10 16:52:00,44.1,29.4,30.31,SSW,202,0.0,0.0,56,0.00,,SKC,0.01,VWS V14.01,2013-03-10 20:52:00,
2013-03-10 16:54:00,44.1,29.4,30.31,WSW,237,0.0,0.0,56,0.00,,SKC,0.01,VWS V14.01,2013-03-10 20:54:00,
2013-03-10 16:55:00,43.9,29.2,30.31,WSW,247,0.0,2.0,56,0.00,,SKC,0.01,VWS V14.01,2013-03-10 20:55:00,
2013-03-10 16:57:00,43.9,29.2,30.31,WSW,248,0.0,2.0,56,0.00,,SKC,0.01,VWS V14.01,2013-03-10 20:57:00,
2013-03-10 16:59:00,43.8,29.1,30.31,WSW,246,0.0,2.0,56,0.00,,SKC,0.01,VWS V14.01,2013-03-10 20:59:00,
2013-03-10 17:00:00,43.8,29.1,30.31,WSW,246,0.0,0.0,56,0.00,,SKC,0.01,VWS V14.01,2013-03-10 21:00:00,
2013-03-10 17:02:00,43.8,29.1,30.31,WSW,247,0.0,4.0,56,0.00,,SKC,0.01,VWS V14.01,2013-03-10 21:02:00,
2013-03-10 17:03:00,43.6,29.0,30.31,WSW,247,1.0,4.0,56,0.00,,SKC,0.01,VWS V14.01,2013-03-10 21:03:00,
2013-03-10 17:04:00,43.6,29.4,30.31,WSW,248,0.0,0.0,57,0.00,,SKC,0.01,VWS V14.01,2013-03-10 21:04:00,
2013-03-10 17:05:00,43.6,29.4,30.31,WSW,247,0.0,0.0,57,0.00,,SKC,0.01,VWS V14.01,2013-03-10 21:05:00,
2013-03-10 17:07:00,43.6,29.4,30.31,WSW,243,2.0,3.0,57,0.00,,SKC,0.01,VWS V14.01,2013-03-10 21:07:00,
2013-03-10 17:08:00,43.6,29.4,30.31,WSW,241,1.0,3.0,57,0.00,,SKC,0.01,VWS V14.01,2013-03-10 21:08:00,
2013-03-10 17:10:00,43.6,29.0,30.31,WSW,241,0.0,0.0,56,0.00,,SKC,0.01,VWS V14.01,2013-03-10 21:10:00,
2013-03-10 17:12:00,43.6,29.0,30.31,WSW,246,0.0,0.0,56,0.00,,SKC,0.01,VWS V14.01,2013-03-10 21:12:00,
2013-03-10 17:14:00,43.6,29.0,30.30,WSW,248,0.0,0.0,56,0.00,,SKC,0.01,VWS V14.01,2013-03-10 21:14:00,
2013-03-10 17:15:00,43.8,29.1,30.30,WSW,241,0.0,0.0,56,0.00,,SKC,0.01,VWS V14.01,2013-03-10 21:15:00,
2013-03-10 17:16:00,43.8,29.1,30.30,WSW,250,0.0,0.0,56,0.00,,SKC,0.01,VWS V14.01,2013-03-10 21:16:00,
2013-03-10 17:18:00,43.8,29.1,30.30,WSW,248,1.0,3.0,56,0.00,,SKC,0.01,VWS V14.01,2013-03-10 21:18:00,
2013-03-10 17:19:00,43.8,29.1,30.30,WSW,247,1.0,3.0,56,0.00,,SKC,0.01,VWS V14.01,2013-03-10 21:19:00,
2013-03-10 17:20:00,43.6,29.0,30.30,SW,230,1.0,3.0,56,0.00,,SKC,0.01,VWS V14.01,2013-03-10 21:20:00,
2013-03-10 17:21:00,43.6,29.0,30.30,SW,234,0.0,3.0,56,0.00,,SKC,0.01,VWS V14.01,2013-03-10 21:21:00,
2013-03-10 17:23:00,43.6,29.0,30.30,WSW,239,0.0,3.0,56,0.00,,SKC,0.01,VWS V14.01,2013-03-10 21:23:00,
2013-03-10 17:24:00,43.6,29.0,30.30,WSW,250,2.0,3.0,56,0.00,,SKC,0.01,VWS V14.01,2013-03-10 21:24:00,
2013-03-10 17:25:00,43.5,28.9,30.30,WSW,253,1.0,3.0,56,0.00,,SKC,0.01,VWS V14.01,2013-03-10 21:25:00,
2013-03-10 17:26:00,43.5,28.9,30.30,WSW,246,0.0,3.0,56,0.00,,SKC,0.01,VWS V14.01,2013-03-10 21:26:00,
2013-03-10 17:29:00,43.6,29.4,30.30,WSW,244,0.0,3.0,57,0.00,,SKC,0.01,VWS V14.01,2013-03-10 21:29:00,
2013-03-10 17:30:00,43.6,29.4,30.30,WSW,244,0.0,3.0,57,0.00,,SKC,0.01,VWS V14.01,2013-03-10 21:30:00,
2013-03-10 17:31:00,43.5,29.3,30.30,WSW,248,0.0,0.0,57,0.00,,SKC,0.01,VWS V14.01,2013-03-10 21:31:00,
2013-03-10 17:34:00,43.5,29.3,30.30,WSW,250,2.0,2.0,57,0.00,,SKC,0.01,VWS V14.01,2013-03-10 21:34:00,
2013-03-10 17:35:00,43.5,29.3,30.30,WSW,251,1.0,3.0,57,0.00,,SKC,0.01,VWS V14.01,2013-03-10 21:35:00,
2013-03-10 17:37:00,43.3,29.1,30.30,WSW,250,2.0,3.0,57,0.00,,SKC,0.01,VWS V14.01,2013-03-10 21:37:00,
2013-03-10 17:39:00,43.3,29.1,30.30,WSW,254,3.0,5.0,57,0.00,,SKC,0.01,VWS V14.01,2013-03-10 21:39:00,
2013-03-10 17:40:00,43.2,29.0,30.30,WSW,241,2.0,5.0,57,0.00,,SKC,0.01,VWS V14.01,2013-03-10 21:40:00,
2013-03-10 17:42:00,43.2,29.4,30.30,WSW,246,3.0,5.0,58,0.00,,SKC,0.01,VWS V14.01,2013-03-10 21:42:00,
2013-03-10 17:44:00,43.1,29.3,30.30,WSW,246,0.0,0.0,58,0.00,,SKC,0.01,VWS V14.01,2013-03-10 21:44:00,
2013-03-10 17:45:00,43.1,29.3,30.30,WSW,244,0.0,0.0,58,0.00,,SKC,0.01,VWS V14.01,2013-03-10 21:45:00,
2013-03-10 17:47:00,43.1,29.3,30.30,WSW,256,0.0,3.0,58,0.00,,SKC,0.01,VWS V14.01,2013-03-10 21:47:00,
2013-03-10 17:48:00,43.1,29.3,30.30,WSW,253,0.0,3.0,58,0.00,,SKC,0.01,VWS V14.01,2013-03-10 21:48:00,
2013-03-10 17:50:00,43.1,29.8,30.30,WSW,247,2.0,2.0,59,0.00,,SKC,0.01,VWS V14.01,2013-03-10 21:50:00,
2013-03-10 17:53:00,43.1,29.3,30.30,WSW,253,0.0,3.0,58,0.00,,SKC,0.01,VWS V14.01,2013-03-10 21:53:00,
2013-03-10 17:55:00,42.9,29.6,30.30,WSW,248,0.0,0.0,59,0.00,,SKC,0.01,VWS V14.01,2013-03-10 21:55:00,
2013-03-10 17:58:00,42.9,29.6,30.30,SW,229,0.0,5.0,59,0.00,,SKC,0.01,VWS V14.01,2013-03-10 21:58:00,
2013-03-10 18:00:00,42.8,29.5,30.30,WSW,246,0.0,0.0,59,0.00,,SKC,0.01,VWS V14.01,2013-03-10 22:00:00,
2013-03-10 18:04:00,42.6,29.7,30.30,WSW,247,2.0,6.0,60,0.00,,SKC,0.01,VWS V14.01,2013-03-10 22:04:00,
2013-03-10 18:05:00,42.5,29.6,30.30,WSW,247,1.0,2.0,60,0.00,,SKC,0.01,VWS V14.01,2013-03-10 22:05:00,
2013-03-10 18:06:00,42.5,29.6,30.30,WSW,248,0.0,2.0,60,0.00,,SKC,0.01,VWS V14.01,2013-03-10 22:06:00,
2013-03-10 18:09:00,42.3,29.4,30.30,WSW,244,0.0,2.0,60,0.00,,SKC,0.01,VWS V14.01,2013-03-10 22:09:00,
2013-03-10 18:10:00,42.3,29.4,30.30,WSW,246,0.0,0.0,60,0.00,,SKC,0.01,VWS V14.01,2013-03-10 22:10:00,
2013-03-10 18:12:00,42.3,29.4,30.30,WSW,243,0.0,0.0,60,0.00,,SKC,0.01,VWS V14.01,2013-03-10 22:12:00,
2013-03-10 18:14:00,42.2,29.3,30.30,WSW,246,0.0,2.0,60,0.00,,SKC,0.01,VWS V14.01,2013-03-10 22:14:00,
2013-03-10 18:15:00,42.2,29.3,30.30,WSW,246,0.0,2.0,60,0.00,,SKC,0.01,VWS V14.01,2013-03-10 22:15:00,
2013-03-10 18:16:00,42.1,29.2,30.30,WSW,250,1.0,2.0,60,0.00,,SKC,0.01,VWS V14.01,2013-03-10 22:16:00,
2013-03-10 18:17:00,42.1,29.2,30.30,WSW,246,0.0,2.0,60,0.00,,SKC,0.01,VWS V14.01,2013-03-10 22:17:00,
2013-03-10 18:19:00,42.1,29.6,30.30,WSW,251,0.0,0.0,61,0.00,,SKC,0.01,VWS V14.01,2013-03-10 22:19:00,
2013-03-10 18:20:00,42.1,29.2,30.30,WSW,246,0.0,2.0,60,0.00,,SKC,0.01,VWS V14.01,2013-03-10 22:20:00,
2013-03-10 18:21:00,42.1,29.6,30.30,WSW,247,0.0,0.0,61,0.00,,SKC,0.01,VWS V14.01,2013-03-10 22:21:00,
2013-03-10 18:22:00,42.1,29.6,30.30,WSW,246,0.0,0.0,61,0.00,,SKC,0.01,VWS V14.01,2013-03-10 22:22:00,
2013-03-10 18:25:00,41.9,29.5,30.30,WSW,244,3.0,3.0,61,0.00,,SKC,0.01,VWS V14.01,2013-03-10 22:25:00,
2013-03-10 18:26:00,41.9,29.5,30.30,WSW,250,0.0,3.0,61,0.00,,SKC,0.01,VWS V14.01,2013-03-10 22:26:00,
2013-03-10 18:27:00,41.8,29.4,30.30,WSW,250,0.0,3.0,61,0.00,,SKC,0.01,VWS V14.01,2013-03-10 22:27:00,
2013-03-10 18:30:00,41.8,29.8,30.30,WSW,250,0.0,0.0,62,0.00,,SKC,0.01,VWS V14.01,2013-03-10 22:30:00,
2013-03-10 18:31:00,41.6,29.6,30.30,WSW,251,3.0,3.0,62,0.00,,SKC,0.01,VWS V14.01,2013-03-10 22:31:00,
2013-03-10 18:32:00,41.6,29.6,30.30,WSW,248,1.0,4.0,62,0.00,,SKC,0.01,VWS V14.01,2013-03-10 22:32:00,
2013-03-10 18:35:00,41.6,29.6,30.30,WSW,248,0.0,2.0,62,0.00,,SKC,0.01,VWS V14.01,2013-03-10 22:35:00,
2013-03-10 18:37:00,41.5,29.5,30.30,WSW,251,1.0,2.0,62,0.00,,SKC,0.01,VWS V14.01,2013-03-10 22:37:00,
2013-03-10 18:38:00,41.3,29.3,30.30,WSW,251,1.0,2.0,62,0.00,,SKC,0.01,VWS V14.01,2013-03-10 22:38:00,
2013-03-10 18:40:00,41.2,29.6,30.30,WSW,247,1.0,3.0,63,0.00,,SKC,0.01,VWS V14.01,2013-03-10 22:40:00,
2013-03-10 18:42:00,41.2,29.6,30.30,WSW,244,0.0,3.0,63,0.00,,SKC,0.01,VWS V14.01,2013-03-10 22:42:00,
2013-03-10 18:43:00,41.2,29.6,30.30,WSW,244,0.0,3.0,63,0.00,,SKC,0.01,VWS V14.01,2013-03-10 22:43:00,
2013-03-10 18:45:00,41.1,29.5,30.31,WSW,243,0.0,0.0,63,0.00,,SKC,0.01,VWS V14.01,2013-03-10 22:45:00,
2013-03-10 18:48:00,40.9,29.7,30.31,WSW,244,2.0,2.0,64,0.00,,SKC,0.01,VWS V14.01,2013-03-10 22:48:00,
2013-03-10 18:50:00,40.8,29.6,30.31,WSW,244,0.0,2.0,64,0.00,,SKC,0.01,VWS V14.01,2013-03-10 22:50:00,
2013-03-10 18:51:00,40.6,29.4,30.31,WSW,248,1.0,5.0,64,0.00,,SKC,0.01,VWS V14.01,2013-03-10 22:51:00,
2013-03-10 18:53:00,40.5,29.7,30.31,WSW,248,2.0,5.0,65,0.00,,SKC,0.01,VWS V14.01,2013-03-10 22:53:00,
2013-03-10 18:55:00,40.3,29.5,30.31,WSW,243,3.0,5.0,65,0.00,,SKC,0.01,VWS V14.01,2013-03-10 22:55:00,
2013-03-10 18:56:00,40.2,29.4,30.31,WSW,257,1.0,5.0,65,0.00,,SKC,0.01,VWS V14.01,2013-03-10 22:56:00,
2013-03-10 18:58:00,40.2,29.8,30.31,WSW,258,2.0,6.0,66,0.00,,SKC,0.01,VWS V14.01,2013-03-10 22:58:00,
2013-03-10 19:00:00,40.1,29.7,30.31,WSW,247,5.0,6.0,66,0.00,,SKC,0.01,VWS V14.01,2013-03-10 23:00:00,
2013-03-10 19:01:00,40.1,29.7,30.31,WSW,254,0.0,5.0,66,0.00,,SKC,0.01,VWS V14.01,2013-03-10 23:01:00,
2013-03-10 19:03:00,39.9,29.9,30.31,WSW,256,0.0,5.0,67,0.00,,SKC,0.01,VWS V14.01,2013-03-10 23:03:00,
2013-03-10 19:04:00,39.9,29.5,30.31,WSW,254,0.0,5.0,66,0.00,,SKC,0.01,VWS V14.01,2013-03-10 23:04:00,
2013-03-10 19:05:00,39.9,29.5,30.31,WSW,254,0.0,5.0,66,0.00,,SKC,0.01,VWS V14.01,2013-03-10 23:05:00,
2013-03-10 19:07:00,39.8,29.8,30.31,WSW,254,0.0,0.0,67,0.00,,SKC,0.01,VWS V14.01,2013-03-10 23:07:00,
2013-03-10 19:08:00,39.8,29.8,30.31,West,260,0.0,0.0,67,0.00,,SKC,0.01,VWS V14.01,2013-03-10 23:08:00,
2013-03-10 19:09:00,39.6,29.6,30.31,WSW,257,0.0,0.0,67,0.00,,SKC,0.01,VWS V14.01,2013-03-10 23:09:00,
2013-03-10 19:10:00,39.6,29.6,30.31,WSW,257,0.0,0.0,67,0.00,,SKC,0.01,VWS V14.01,2013-03-10 23:10:00,
2013-03-10 19:12:00,39.6,29.6,30.31,WSW,253,0.0,2.0,67,0.00,,SKC,0.01,VWS V14.01,2013-03-10 23:12:00,
2013-03-10 19:14:00,39.6,29.6,30.32,WSW,254,0.0,2.0,67,0.00,,SKC,0.01,VWS V14.01,2013-03-10 23:14:00,
2013-03-10 19:15:00,39.5,29.5,30.32,WSW,250,0.0,0.0,67,0.00,,SKC,0.01,VWS V14.01,2013-03-10 23:15:00,
2013-03-10 19:18:00,39.3,29.6,30.32,SW,233,0.0,0.0,68,0.00,,SKC,0.01,VWS V14.01,2013-03-10 23:18:00,
2013-03-10 19:19:00,39.3,29.6,30.32,SW,232,0.0,0.0,68,0.00,,SKC,0.01,VWS V14.01,2013-03-10 23:19:00,
2013-03-10 19:20:00,39.3,29.6,30.32,SW,230,0.0,0.0,68,0.00,,SKC,0.01,VWS V14.01,2013-03-10 23:20:00,
2013-03-10 19:21:00,39.2,29.5,30.32,WSW,239,0.0,0.0,68,0.00,,SKC,0.01,VWS V14.01,2013-03-10 23:21:00,
2013-03-10 19:23:00,39.1,29.5,30.32,WSW,237,0.0,0.0,68,0.00,,SKC,0.01,VWS V14.01,2013-03-10 23:23:00,
2013-03-10 19:24:00,39.1,29.5,30.32,WSW,243,0.0,0.0,68,0.00,,SKC,0.01,VWS V14.01,2013-03-10 23:24:00,
2013-03-10 19:25:00,39.1,29.4,30.32,WSW,243,0.0,0.0,68,0.00,,SKC,0.01,VWS V14.01,2013-03-10 23:25:00,
2013-03-10 19:26:00,39.1,29.8,30.32,WSW,240,0.0,0.0,69,0.00,,SKC,0.01,VWS V14.01,2013-03-10 23:26:00,
2013-03-10 19:28:00,38.9,29.6,30.32,WSW,239,0.0,0.0,69,0.00,,SKC,0.01,VWS V14.01,2013-03-10 23:28:00,
2013-03-10 19:29:00,38.8,29.5,30.32,WSW,239,0.0,0.0,69,0.00,,SKC,0.01,VWS V14.01,2013-03-10 23:29:00,
2013-03-10 19:30:00,38.8,29.5,30.32,WSW,237,0.0,0.0,69,0.00,,SKC,0.01,VWS V14.01,2013-03-10 23:30:00,
2013-03-10 19:31:00,38.6,29.3,30.32,WSW,237,0.0,0.0,69,0.00,,SKC,0.01,VWS V14.01,2013-03-10 23:31:00,
2013-03-10 19:33:00,38.5,29.6,30.32,WSW,239,0.0,0.0,70,0.00,,SKC,0.01,VWS V14.01,2013-03-10 23:33:00,
2013-03-10 19:34:00,38.5,29.6,30.32,WSW,241,0.0,0.0,70,0.00,,SKC,0.01,VWS V14.01,2013-03-10 23:34:00,
2013-03-10 19:35:00,38.5,29.6,30.32,WSW,237,0.0,0.0,70,0.00,,SKC,0.01,VWS V14.01,2013-03-10 23:35:00,
2013-03-10 19:37:00,38.3,29.7,30.32,SW,236,0.0,0.0,71,0.00,,SKC,0.01,VWS V14.01,2013-03-10 23:37:00,
2013-03-10 19:38:00,38.2,29.6,30.32,SW,236,1.0,3.0,71,0.00,,SKC,0.01,VWS V14.01,2013-03-10 23:38:00,
2013-03-10 19:39:00,38.2,29.6,30.32,WSW,239,0.0,1.0,71,0.00,,SKC,0.01,VWS V14.01,2013-03-10 23:39:00,
2013-03-10 19:40:00,38.2,29.6,30.32,WSW,239,1.0,2.0,71,0.00,,SKC,0.01,VWS V14.01,2013-03-10 23:40:00,
2013-03-10 19:42:00,38.0,29.5,30.32,SW,230,0.0,2.0,71,0.00,,SKC,0.01,VWS V14.01,2013-03-10 23:42:00,
2013-03-10 19:44:00,38.0,29.5,30.32,SW,222,0.0,2.0,71,0.00,,SKC,0.01,VWS V14.01,2013-03-10 23:44:00,
2013-03-10 19:45:00,37.9,29.4,30.32,SW,222,0.0,0.0,71,0.00,,SKC,0.01,VWS V14.01,2013-03-10 23:45:00,
2013-03-10 19:46:00,37.9,29.4,30.32,SW,220,0.0,0.0,71,0.00,,SKC,0.01,VWS V14.01,2013-03-10 23:46:00,
2013-03-10 19:47:00,37.9,29.7,30.32,SW,220,0.0,0.0,72,0.00,,SKC,0.01,VWS V14.01,2013-03-10 23:47:00,
2013-03-10 19:50:00,37.8,29.6,30.32,SW,222,0.0,0.0,72,0.00,,SKC,0.01,VWS V14.01,2013-03-10 23:50:00,
2013-03-10 19:51:00,37.8,29.6,30.32,SW,220,0.0,0.0,72,0.00,,SKC,0.01,VWS V14.01,2013-03-10 23:51:00,
2013-03-10 19:52:00,37.8,29.6,30.32,SW,222,0.0,0.0,72,0.00,,SKC,0.01,VWS V14.01,2013-03-10 23:52:00,
2013-03-10 19:55:00,37.6,29.4,30.32,SW,223,0.0,0.0,72,0.00,,SKC,0.01,VWS V14.01,2013-03-10 23:55:00,
2013-03-10 19:56:00,37.6,29.7,30.32,SW,224,0.0,0.0,73,0.00,,SKC,0.01,VWS V14.01,2013-03-10 23:56:00,
2013-03-10 19:58:00,37.6,29.7,30.32,SW,227,0.0,0.0,73,0.00,,SKC,0.01,VWS V14.01,2013-03-10 23:58:00,
2013-03-10 20:00:00,37.5,29.6,30.32,SW,227,0.0,0.0,73,0.00,,SKC,0.01,VWS V14.01,2013-03-11 00:00:00,
2013-03-10 20:01:00,37.5,29.6,30.32,SW,236,2.0,2.0,73,0.00,,SKC,0.01,VWS V14.01,2013-03-11 00:01:00,
2013-03-10 20:02:00,37.5,29.6,30.32,WSW,237,1.0,2.0,73,0.00,,SKC,0.01,VWS V14.01,2013-03-11 00:02:00,
2013-03-10 20:04:00,37.5,29.6,30.32,WSW,237,0.0,2.0,73,0.00,,SKC,0.01,VWS V14.01,2013-03-11 00:04:00,
2013-03-10 20:05:00,37.5,29.6,30.32,WSW,241,0.0,0.0,73,0.00,,SKC,0.01,VWS V14.01,2013-03-11 00:05:00,
2013-03-10 20:07:00,37.5,29.6,30.32,WSW,237,0.0,0.0,73,0.00,,SKC,0.01,VWS V14.01,2013-03-11 00:07:00,
2013-03-10 20:09:00,37.5,29.6,30.32,SW,227,2.0,2.0,73,0.00,,SKC,0.01,VWS V14.01,2013-03-11 00:09:00,
2013-03-10 20:10:00,37.5,29.6,30.32,SW,227,2.0,2.0,73,0.00,,SKC,0.01,VWS V14.01,2013-03-11 00:10:00,
2013-03-10 20:12:00,37.5,30.0,30.32,SW,227,2.0,2.0,74,0.00,,SKC,0.01,VWS V14.01,2013-03-11 00:12:00,
2013-03-10 20:13:00,37.5,30.0,30.32,SW,229,2.0,4.0,74,0.00,,SKC,0.01,VWS V14.01,2013-03-11 00:13:00,
2013-03-10 20:14:00,37.5,30.0,30.32,SW,227,0.0,0.0,74,0.00,,SKC,0.01,VWS V14.01,2013-03-11 00:14:00,
2013-03-10 20:15:00,37.5,30.0,30.32,SW,230,0.0,4.0,74,0.00,,SKC,0.01,VWS V14.01,2013-03-11 00:15:00,
2013-03-10 20:17:00,37.3,29.8,30.32,WSW,237,2.0,5.0,74,0.00,,SKC,0.01,VWS V14.01,2013-03-11 00:17:00,
2013-03-10 20:18:00,37.3,29.8,30.32,SW,229,0.0,5.0,74,0.00,,SKC,0.01,VWS V14.01,2013-03-11 00:18:00,
2013-03-10 20:19:00,37.3,29.8,30.32,SW,232,0.0,5.0,74,0.00,,SKC,0.01,VWS V14.01,2013-03-11 00:19:00,
2013-03-10 20:20:00,37.3,29.8,30.32,SW,230,0.0,5.0,74,0.00,,SKC,0.01,VWS V14.01,2013-03-11 00:20:00,
2013-03-10 20:22:00,37.3,29.8,30.32,SW,230,0.0,0.0,74,0.00,,SKC,0.01,VWS V14.01,2013-03-11 00:22:00,
2013-03-10 20:23:00,37.3,29.8,30.32,SW,230,0.0,0.0,74,0.00,,SKC,0.01,VWS V14.01,2013-03-11 00:23:00,
2013-03-10 20:24:00,37.3,29.8,30.32,SW,230,0.0,0.0,74,0.00,,SKC,0.01,VWS V14.01,2013-03-11 00:24:00,
2013-03-10 20:25:00,37.3,29.8,30.32,SW,230,0.0,0.0,74,0.00,,SKC,0.01,VWS V14.01,2013-03-11 00:25:00,
2013-03-10 20:27:00,37.2,29.7,30.32,SW,232,0.0,0.0,74,0.00,,SKC,0.01,VWS V14.01,2013-03-11 00:27:00,
2013-03-10 20:28:00,37.2,29.7,30.33,SW,230,0.0,0.0,74,0.00,,SKC,0.01,VWS V14.01,2013-03-11 00:28:00,
2013-03-10 20:29:00,37.2,29.7,30.33,SW,230,0.0,0.0,74,0.00,,SKC,0.01,VWS V14.01,2013-03-11 00:29:00,
2013-03-10 20:30:00,37.2,29.7,30.33,SW,232,0.0,0.0,74,0.00,,SKC,0.01,VWS V14.01,2013-03-11 00:30:00,
2013-03-10 20:31:00,37.2,29.7,30.33,SW,232,0.0,0.0,74,0.00,,SKC,0.01,VWS V14.01,2013-03-11 00:31:00,
2013-03-10 20:33:00,37.2,29.7,30.33,SW,234,0.0,0.0,74,0.00,,SKC,0.01,VWS V14.01,2013-03-11 00:33:00,
2013-03-10 20:34:00,37.2,29.7,30.33,SW,234,0.0,0.0,74,0.00,,SKC,0.01,VWS V14.01,2013-03-11 00:34:00,
2013-03-10 20:35:00,37.2,29.7,30.33,SW,234,0.0,0.0,74,0.00,,SKC,0.01,VWS V14.01,2013-03-11 00:35:00,
2013-03-10 20:36:00,37.0,29.5,30.33,SW,236,0.0,0.0,74,0.00,,SKC,0.01,VWS V14.01,2013-03-11 00:36:00,
2013-03-10 20:38:00,37.0,29.5,30.33,WSW,237,0.0,0.0,74,0.00,,SKC,0.01,VWS V14.01,2013-03-11 00:38:00,
2013-03-10 20:39:00,37.0,29.5,30.33,SW,236,0.0,0.0,74,0.00,,SKC,0.01,VWS V14.01,2013-03-11 00:39:00,
2013-03-10 20:40:00,37.0,29.5,30.33,SW,234,0.0,0.0,74,0.00,,SKC,0.01,VWS V14.01,2013-03-11 00:40:00,
2013-03-10 20:41:00,37.0,29.8,30.33,SW,234,0.0,0.0,75,0.00,,SKC,0.01,VWS V14.01,2013-03-11 00:41:00,
2013-03-10 20:43:00,37.0,29.8,30.32,SW,236,0.0,0.0,75,0.00,,SKC,0.01,VWS V14.01,2013-03-11 00:43:00,
2013-03-10 20:44:00,37.0,29.8,30.32,SW,234,0.0,0.0,75,0.00,,SKC,0.01,VWS V14.01,2013-03-11 00:44:00,
2013-03-10 20:45:00,37.0,29.8,30.32,SW,234,0.0,0.0,75,0.00,,SKC,0.01,VWS V14.01,2013-03-11 00:45:00,
2013-03-10 20:46:00,37.0,29.8,30.32,SW,236,0.0,0.0,75,0.00,,SKC,0.01,VWS V14.01,2013-03-11 00:46:00,
2013-03-10 20:49:00,37.0,29.8,30.32,SW,236,0.0,0.0,75,0.00,,SKC,0.01,VWS V14.01,2013-03-11 00:49:00,
2013-03-10 20:50:00,37.0,29.8,30.32,SW,236,0.0,0.0,75,0.00,,SKC,0.01,VWS V14.01,2013-03-11 00:50:00,
2013-03-10 20:51:00,36.9,29.7,30.32,SW,236,0.0,0.0,75,0.00,,SKC,0.01,VWS V14.01,2013-03-11 00:51:00,
2013-03-10 20:54:00,36.9,29.7,30.32,SW,236,0.0,0.0,75,0.00,,SKC,0.01,VWS V14.01,2013-03-11 00:54:00,
2013-03-10 20:55:00,36.9,29.7,30.32,SW,234,0.0,0.0,75,0.00,,SKC,0.01,VWS V14.01,2013-03-11 00:55:00,
2013-03-10 20:56:00,36.9,30.4,30.32,SW,234,0.0,0.0,77,0.00,,SKC,0.01,VWS V14.01,2013-03-11 00:56:00,
2013-03-10 20:58:00,36.9,30.4,30.32,SW,234,1.0,1.0,77,0.00,,SKC,0.01,VWS V14.01,2013-03-11 00:58:00,
2013-03-10 20:59:00,36.9,30.7,30.32,WSW,241,0.0,0.0,78,0.00,,SKC,0.01,VWS V14.01,2013-03-11 00:59:00,
2013-03-10 21:00:00,36.9,30.7,30.32,WSW,237,0.0,1.0,78,0.00,,SKC,0.01,VWS V14.01,2013-03-11 01:00:00,
2013-03-10 21:01:00,36.9,30.7,30.32,WSW,247,0.0,0.0,78,0.00,,SKC,0.01,VWS V14.01,2013-03-11 01:01:00,
2013-03-10 21:04:00,36.9,31.0,30.32,WSW,243,0.0,0.0,79,0.00,,SKC,0.01,VWS V14.01,2013-03-11 01:04:00,
2013-03-10 21:05:00,36.8,30.9,30.32,WSW,244,0.0,0.0,79,0.00,,SKC,0.01,VWS V14.01,2013-03-11 01:05:00,
2013-03-10 21:07:00,36.8,31.2,30.32,WSW,246,0.0,0.0,80,0.00,,SKC,0.01,VWS V14.01,2013-03-11 01:07:00,
2013-03-10 21:09:00,36.8,31.2,30.32,WSW,248,0.0,0.0,80,0.00,,SKC,0.01,VWS V14.01,2013-03-11 01:09:00,
2013-03-10 21:10:00,36.6,31.0,30.32,WSW,244,0.0,0.0,80,0.00,,SKC,0.01,VWS V14.01,2013-03-11 01:10:00,
2013-03-10 21:12:00,36.6,31.3,30.32,WSW,246,0.0,0.0,81,0.00,,SKC,0.01,VWS V14.01,2013-03-11 01:12:00,
2013-03-10 21:14:00,36.5,31.2,30.32,WSW,243,0.0,0.0,81,0.00,,SKC,0.01,VWS V14.01,2013-03-11 01:14:00,
2013-03-10 21:15:00,36.5,31.2,30.32,WSW,247,0.0,0.0,81,0.00,,SKC,0.01,VWS V14.01,2013-03-11 01:15:00,
2013-03-10 21:18:00,36.3,31.3,30.32,WSW,244,0.0,0.0,82,0.00,,SKC,0.01,VWS V14.01,2013-03-11 01:18:00,
2013-03-10 21:20:00,36.3,31.3,30.32,WSW,243,0.0,0.0,82,0.00,,SKC,0.01,VWS V14.01,2013-03-11 01:20:00,
2013-03-10 21:22:00,36.2,31.2,30.32,WSW,246,1.0,2.0,82,0.00,,SKC,0.01,VWS V14.01,2013-03-11 01:22:00,
2013-03-10 21:23:00,36.2,31.2,30.32,WSW,247,2.0,2.0,82,0.00,,SKC,0.01,VWS V14.01,2013-03-11 01:23:00,
2013-03-10 21:25:00,36.0,31.4,30.32,WSW,244,0.0,0.0,83,0.00,,SKC,0.01,VWS V14.01,2013-03-11 01:25:00,
2013-03-10 21:27:00,36.0,31.4,30.32,WSW,244,0.0,0.0,83,0.00,,SKC,0.01,VWS V14.01,2013-03-11 01:27:00,
2013-03-10 21:29:00,36.0,31.4,30.32,WSW,247,0.0,0.0,83,0.00,,SKC,0.01,VWS V14.01,2013-03-11 01:29:00,
2013-03-10 21:30:00,35.9,31.2,30.32,WSW,248,0.0,0.0,83,0.00,,SKC,0.01,VWS V14.01,2013-03-11 01:30:00,
2013-03-10 21:32:00,35.9,31.5,30.32,WSW,247,0.0,0.0,84,0.00,,SKC,0.01,VWS V14.01,2013-03-11 01:32:00,
2013-03-10 21:34:00,35.8,31.5,30.32,WSW,247,0.0,0.0,84,0.00,,SKC,0.01,VWS V14.01,2013-03-11 01:34:00,
2013-03-10 21:35:00,35.8,31.5,30.32,WSW,247,0.0,0.0,84,0.00,,SKC,0.01,VWS V14.01,2013-03-11 01:35:00,
2013-03-10 21:37:00,35.8,31.5,30.32,WSW,250,0.0,0.0,84,0.00,,SKC,0.01,VWS V14.01,2013-03-11 01:37:00,
2013-03-10 21:39:00,35.8,31.5,30.32,WSW,247,0.0,0.0,84,0.00,,SKC,0.01,VWS V14.01,2013-03-11 01:39:00,
2013-03-10 21:40:00,35.8,31.5,30.32,WSW,247,0.0,0.0,84,0.00,,SKC,0.01,VWS V14.01,2013-03-11 01:40:00,
2013-03-10 21:42:00,35.8,31.7,30.32,WSW,248,0.0,0.0,85,0.00,,SKC,0.01,VWS V14.01,2013-03-11 01:42:00,
2013-03-10 21:43:00,35.6,31.5,30.32,WSW,248,0.0,0.0,85,0.00,,SKC,0.01,VWS V14.01,2013-03-11 01:43:00,
2013-03-10 21:44:00,35.6,31.5,30.32,WSW,248,0.0,0.0,85,0.00,,SKC,0.01,VWS V14.01,2013-03-11 01:44:00,
2013-03-10 21:45:00,35.6,31.5,30.32,WSW,248,0.0,0.0,85,0.00,,SKC,0.01,VWS V14.01,2013-03-11 01:45:00,
2013-03-10 21:47:00,35.6,31.5,30.32,WSW,247,0.0,0.0,85,0.00,,SKC,0.01,VWS V14.01,2013-03-11 01:47:00,
2013-03-10 21:48:00,35.6,31.5,30.32,WSW,246,0.0,0.0,85,0.00,,SKC,0.01,VWS V14.01,2013-03-11 01:48:00,
2013-03-10 21:49:00,35.6,31.5,30.32,WSW,246,0.0,0.0,85,0.00,,SKC,0.01,VWS V14.01,2013-03-11 01:49:00,
2013-03-10 21:50:00,35.6,31.5,30.32,WSW,247,0.0,0.0,85,0.00,,SKC,0.01,VWS V14.01,2013-03-11 01:50:00,
2013-03-10 21:52:00,35.5,31.5,30.32,WSW,239,0.0,2.0,85,0.00,,SKC,0.01,VWS V14.01,2013-03-11 01:52:00,
2013-03-10 21:53:00,35.5,31.5,30.32,WSW,251,3.0,3.0,85,0.00,,SKC,0.01,VWS V14.01,2013-03-11 01:53:00,
2013-03-10 21:55:00,35.5,31.5,30.32,WSW,254,3.0,3.0,85,0.00,,SKC,0.01,VWS V14.01,2013-03-11 01:55:00,
2013-03-10 21:58:00,35.5,31.5,30.32,WSW,254,0.0,3.0,85,0.00,,SKC,0.01,VWS V14.01,2013-03-11 01:58:00,
2013-03-10 21:59:00,35.5,31.5,30.31,WSW,256,1.0,2.0,85,0.00,,SKC,0.01,VWS V14.01,2013-03-11 01:59:00,
2013-03-10 22:00:00,35.5,31.5,30.31,WSW,257,2.0,2.0,85,0.00,,SKC,0.01,VWS V14.01,2013-03-11 02:00:00,
2013-03-10 22:03:00,35.5,31.5,30.31,WSW,253,0.0,2.0,85,0.00,,SKC,0.01,VWS V14.01,2013-03-11 02:03:00,
2013-03-10 22:05:00,35.5,31.5,30.31,WSW,253,0.0,0.0,85,0.00,,SKC,0.01,VWS V14.01,2013-03-11 02:05:00,
2013-03-10 22:08:00,35.5,31.5,30.31,WSW,254,3.0,3.0,85,0.00,,SKC,0.01,VWS V14.01,2013-03-11 02:08:00,
2013-03-10 22:09:00,35.5,31.5,30.31,WSW,256,2.0,4.0,85,0.00,,SKC,0.01,VWS V14.01,2013-03-11 02:09:00,
2013-03-10 22:10:00,35.5,31.5,30.31,WSW,257,0.0,1.0,85,0.00,,SKC,0.01,VWS V14.01,2013-03-11 02:10:00,
2013-03-10 22:13:00,35.3,31.5,30.31,WSW,258,0.0,1.0,86,0.00,,SKC,0.01,VWS V14.01,2013-03-11 02:13:00,
2013-03-10 22:15:00,35.3,31.5,30.31,WSW,257,0.0,0.0,86,0.00,,SKC,0.01,VWS V14.01,2013-03-11 02:15:00,
2013-03-10 22:16:00,35.3,31.5,30.31,WSW,256,0.0,0.0,86,0.00,,SKC,0.01,VWS V14.01,2013-03-11 02:16:00,
2013-03-10 22:18:00,35.3,31.5,30.31,WSW,256,0.0,0.0,86,0.00,,SKC,0.01,VWS V14.01,2013-03-11 02:18:00,
2013-03-10 22:20:00,35.3,31.5,30.31,WSW,257,0.0,0.0,86,0.00,,SKC,0.01,VWS V14.01,2013-03-11 02:20:00,
2013-03-10 22:21:00,35.3,31.5,30.31,WSW,244,5.0,5.0,86,0.00,,SKC,0.01,VWS V14.01,2013-03-11 02:21:00,
2013-03-10 22:24:00,35.3,31.5,30.31,WSW,246,0.0,5.0,86,0.00,,SKC,0.01,VWS V14.01,2013-03-11 02:24:00,
2013-03-10 22:25:00,35.3,31.5,30.31,WSW,247,0.0,0.0,86,0.00,,SKC,0.01,VWS V14.01,2013-03-11 02:25:00,
2013-03-10 22:26:00,35.3,31.5,30.31,WSW,247,1.0,3.0,86,0.00,,SKC,0.01,VWS V14.01,2013-03-11 02:26:00,
2013-03-10 22:29:00,35.3,31.5,30.31,WSW,248,0.0,3.0,86,0.00,,SKC,0.01,VWS V14.01,2013-03-11 02:29:00,
2013-03-10 22:30:00,35.3,31.5,30.31,WSW,248,2.0,2.0,86,0.00,,SKC,0.01,VWS V14.01,2013-03-11 02:30:00,
2013-03-10 22:32:00,35.3,31.5,30.31,WSW,248,0.0,2.0,86,0.00,,SKC,0.01,VWS V14.01,2013-03-11 02:32:00,
2013-03-10 22:34:00,35.3,31.5,30.31,WSW,248,0.0,0.0,86,0.00,,SKC,0.01,VWS V14.01,2013-03-11 02:34:00,
2013-03-10 22:35:00,35.3,31.5,30.31,WSW,248,0.0,0.0,86,0.00,,SKC,0.01,VWS V14.01,2013-03-11 02:35:00,
2013-03-10 22:37:00,35.3,31.5,30.31,SW,222,0.0,0.0,86,0.00,,SKC,0.01,VWS V14.01,2013-03-11 02:37:00,
2013-03-10 22:40:00,35.3,31.5,30.31,WSW,247,0.0,0.0,86,0.00,,SKC,0.01,VWS V14.01,2013-03-11 02:40:00,
2013-03-10 22:42:00,35.3,31.5,30.31,WSW,246,0.0,0.0,86,0.00,,SKC,0.01,VWS V14.01,2013-03-11 02:42:00,
2013-03-10 22:45:00,35.3,31.5,30.31,WSW,247,0.0,0.0,86,0.00,,SKC,0.01,VWS V14.01,2013-03-11 02:45:00,
2013-03-10 22:46:00,35.3,31.5,30.31,WSW,247,0.0,0.0,86,0.00,,SKC,0.01,VWS V14.01,2013-03-11 02:46:00,
2013-03-10 22:47:00,35.3,31.5,30.31,WSW,246,0.0,0.0,86,0.00,,SKC,0.01,VWS V14.01,2013-03-11 02:47:00,
2013-03-10 22:50:00,35.3,31.5,30.31,WSW,248,0.0,0.0,86,0.00,,SKC,0.01,VWS V14.01,2013-03-11 02:50:00,
2013-03-10 22:51:00,35.3,31.5,30.31,WSW,247,0.0,0.0,86,0.00,,SKC,0.01,VWS V14.01,2013-03-11 02:51:00,
2013-03-10 22:52:00,35.3,31.5,30.31,WSW,247,0.0,0.0,86,0.00,,SKC,0.01,VWS V14.01,2013-03-11 02:52:00,
2013-03-10 22:55:00,35.2,31.4,30.31,WSW,248,2.0,2.0,86,0.00,,SKC,0.01,VWS V14.01,2013-03-11 02:55:00,
2013-03-10 22:56:00,35.2,31.4,30.31,WSW,247,0.0,3.0,86,0.00,,SKC,0.01,VWS V14.01,2013-03-11 02:56:00,
2013-03-10 22:57:00,35.2,31.4,30.31,WSW,246,0.0,3.0,86,0.00,,SKC,0.01,VWS V14.01,2013-03-11 02:57:00,
2013-03-10 22:58:00,35.2,31.4,30.31,WSW,247,0.0,3.0,86,0.00,,SKC,0.01,VWS V14.01,2013-03-11 02:58:00,
2013-03-10 23:00:00,35.2,31.4,30.31,WSW,247,0.0,3.0,86,0.00,,SKC,0.01,VWS V14.01,2013-03-11 03:00:00,
2013-03-10 23:02:00,35.2,31.4,30.31,WSW,257,1.0,6.0,86,0.00,,SKC,0.01,VWS V14.01,2013-03-11 03:02:00,
2013-03-10 23:03:00,35.2,31.4,30.31,WSW,250,0.0,6.0,86,0.00,,SKC,0.01,VWS V14.01,2013-03-11 03:03:00,
2013-03-10 23:05:00,35.2,31.4,30.31,WSW,248,0.0,6.0,86,0.00,,SKC,0.01,VWS V14.01,2013-03-11 03:05:00,
2013-03-10 23:07:00,35.2,31.4,30.31,WSW,248,0.0,2.0,86,0.00,,SKC,0.01,VWS V14.01,2013-03-11 03:07:00,
2013-03-10 23:08:00,35.2,31.4,30.31,WSW,250,0.0,2.0,86,0.00,,SKC,0.01,VWS V14.01,2013-03-11 03:08:00,
2013-03-10 23:10:00,35.2,31.4,30.31,WSW,248,0.0,2.0,86,0.00,,SKC,0.01,VWS V14.01,2013-03-11 03:10:00,
2013-03-10 23:13:00,35.2,31.4,30.31,WSW,248,0.0,0.0,86,0.00,,SKC,0.01,VWS V14.01,2013-03-11 03:13:00,
2013-03-10 23:15:00,35.2,31.4,30.31,WSW,250,0.0,0.0,86,0.00,,SKC,0.01,VWS V14.01,2013-03-11 03:15:00,
2013-03-10 23:18:00,35.2,31.4,30.31,WSW,258,1.0,3.0,86,0.00,,SKC,0.01,VWS V14.01,2013-03-11 03:18:00,
2013-03-10 23:19:00,35.2,31.4,30.31,WSW,257,3.0,3.0,86,0.00,,SKC,0.01,VWS V14.01,2013-03-11 03:19:00,
2013-03-10 23:20:00,35.2,31.4,30.31,WSW,258,1.0,3.0,86,0.00,,SKC,0.01,VWS V14.01,2013-03-11 03:20:00,
2013-03-10 23:23:00,35.2,31.4,30.31,WSW,257,0.0,2.0,86,0.00,,SKC,0.01,VWS V14.01,2013-03-11 03:23:00,
2013-03-10 23:24:00,35.2,31.4,30.31,WSW,258,0.0,0.0,86,0.00,,SKC,0.01,VWS V14.01,2013-03-11 03:24:00,
2013-03-10 23:25:00,35.2,31.4,30.31,WSW,258,0.0,2.0,86,0.00,,SKC,0.01,VWS V14.01,2013-03-11 03:25:00,
2013-03-10 23:27:00,35.2,31.4,30.31,WSW,258,0.0,3.0,86,0.00,,SKC,0.01,VWS V14.01,2013-03-11 03:27:00,
2013-03-10 23:28:00,35.2,31.4,30.31,WSW,256,0.0,3.0,86,0.00,,SKC,0.01,VWS V14.01,2013-03-11 03:28:00,
2013-03-10 23:29:00,35.2,31.4,30.31,WSW,258,0.0,3.0,86,0.00,,SKC,0.01,VWS V14.01,2013-03-11 03:29:00,
2013-03-10 23:30:00,35.2,31.4,30.31,WSW,258,0.0,3.0,86,0.00,,SKC,0.01,VWS V14.01,2013-03-11 03:30:00,
2013-03-10 23:33:00,35.2,31.4,30.31,WSW,257,0.0,0.0,86,0.00,,SKC,0.01,VWS V14.01,2013-03-11 03:33:00,
2013-03-10 23:34:00,35.2,31.4,30.31,WSW,258,3.0,3.0,86,0.00,,SKC,0.01,VWS V14.01,2013-03-11 03:34:00,
2013-03-10 23:35:00,35.2,31.4,30.31,WSW,257,0.0,2.0,86,0.00,,SKC,0.01,VWS V14.01,2013-03-11 03:35:00,
2013-03-10 23:38:00,35.2,31.4,30.31,WSW,253,2.0,4.0,86,0.00,,SKC,0.01,VWS V14.01,2013-03-11 03:38:00,
2013-03-10 23:39:00,35.2,31.4,30.31,WSW,254,0.0,4.0,86,0.00,,SKC,0.01,VWS V14.01,2013-03-11 03:39:00,
2013-03-10 23:40:00,35.2,31.4,30.31,WSW,253,0.0,0.0,86,0.00,,SKC,0.01,VWS V14.01,2013-03-11 03:40:00,
2013-03-10 23:43:00,35.2,31.4,30.31,WSW,254,0.0,0.0,86,0.00,,SKC,0.01,VWS V14.01,2013-03-11 03:43:00,
2013-03-10 23:44:00,35.2,31.4,30.30,WSW,253,0.0,0.0,86,0.00,,SKC,0.01,VWS V14.01,2013-03-11 03:44:00,
2013-03-10 23:45:00,35.2,31.4,30.30,WSW,254,0.0,0.0,86,0.00,,SKC,0.01,VWS V14.01,2013-03-11 03:45:00,
2013-03-10 23:48:00,35.2,31.4,30.30,WSW,254,0.0,0.0,86,0.00,,SKC,0.01,VWS V14.01,2013-03-11 03:48:00,
2013-03-10 23:49:00,35.0,31.2,30.30,WSW,256,0.0,0.0,86,0.00,,SKC,0.01,VWS V14.01,2013-03-11 03:49:00,
2013-03-10 23:50:00,35.0,31.2,30.30,WSW,256,0.0,0.0,86,0.00,,SKC,0.01,VWS V14.01,2013-03-11 03:50:00,
2013-03-10 23:53:00,35.0,31.2,30.30,WSW,256,0.0,0.0,86,0.00,,SKC,0.01,VWS V14.01,2013-03-11 03:53:00,
2013-03-10 23:54:00,35.0,31.2,30.30,WSW,256,0.0,0.0,86,0.00,,SKC,0.01,VWS V14.01,2013-03-11 03:54:00,
2013-03-10 23:55:00,35.0,31.2,30.30,WSW,253,0.0,0.0,86,0.00,,SKC,0.01,VWS V14.01,2013-03-11 03:55:00,
2013-03-10 23:56:00,35.0,31.2,30.30,WSW,256,0.0,0.0,86,0.00,,SKC,0.01,VWS V14.01,2013-03-11 03:56:00,
2013-03-10 23:59:00,35.0,31.2,30.30,WSW,256,0.0,0.0,86,0.00,,SKC,0.01,VWS V14.01,2013-03-11 03:59:00,